Time,TemperatureF,DewpointF,PressureIn,WindDirection,WindDirectionDegrees,WindSpeedMPH,WindSpeedGustMPH,Humidity,HourlyPrecipIn,Conditions,Clouds,dailyrainin,SoftwareType,DateUTC
2013-01-13 00:01:00,34.4,24.6,30.22,ENE,71,0.0,0.0,67,0.00,RA,,0.00,WeatherDisplay:10.37,2013-01-13 08:01:00,
2013-01-13 00:03:00,34.4,24.9,30.22,ENE,71,0.0,0.0,68,0.00,RA,,0.00,WeatherDisplay:10.37,2013-01-13 08:03:00,
2013-01-13 00:04:00,34.3,24.8,30.22,ENE,71,0.0,0.0,68,0.00,RA,,0.00,WeatherDisplay:10.37,2013-01-13 08:04:00,
2013-01-13 00:05:00,34.3,24.8,30.22,ENE,71,0.0,0.0,68,0.00,RA,,0.00,WeatherDisplay:10.37,2013-01-13 08:05:00,
2013-01-13 00:07:00,34.3,24.8,30.22,ENE,71,0.0,0.0,68,0.00,RA,,0.00,WeatherDisplay:10.37,2013-01-13 08:07:00,
2013-01-13 00:08:00,34.2,24.7,30.22,ENE,71,0.0,0.0,68,0.00,RA,,0.00,WeatherDisplay:10.37,2013-01-13 08:08:00,
2013-01-13 00:09:00,34.2,24.7,30.22,ENE,71,0.0,0.0,68,0.00,RA,,0.00,WeatherDisplay:10.37,2013-01-13 08:09:00,
2013-01-13 00:10:00,34.2,24.7,30.22,ENE,71,0.0,0.0,68,0.00,SCT,,0.00,WeatherDisplay:10.37,2013-01-13 08:10:00,
2013-01-13 00:12:00,34.2,24.7,30.22,ENE,71,0.0,0.0,68,0.00,SCT,,0.00,WeatherDisplay:10.37,2013-01-13 08:12:00,
2013-01-13 00:13:00,34.1,24.6,30.22,ENE,71,0.0,0.0,68,0.00,SCT,,0.00,WeatherDisplay:10.37,2013-01-13 08:13:00,
2013-01-13 00:14:00,34.1,24.6,30.21,ENE,71,0.0,0.0,68,0.00,SCT,,0.00,WeatherDisplay:10.37,2013-01-13 08:14:00,
2013-01-13 00:15:00,34.1,24.6,30.22,ENE,71,0.0,0.0,68,0.00,SCT,,0.00,WeatherDisplay:10.37,2013-01-13 08:15:00,
2013-01-13 00:18:00,34.1,25.0,30.22,ENE,71,0.0,0.0,69,0.00,SCT,,0.00,WeatherDisplay:10.37,2013-01-13 08:18:00,
2013-01-13 00:19:00,34.0,24.5,30.22,ENE,71,0.0,0.0,68,0.00,SCT,,0.00,WeatherDisplay:10.37,2013-01-13 08:19:00,
2013-01-13 00:20:00,34.0,24.5,30.22,ENE,71,0.0,0.0,68,0.00,SCT,,0.00,WeatherDisplay:10.37,2013-01-13 08:20:00,
2013-01-13 00:23:00,33.9,24.8,30.22,ENE,71,0.0,0.0,69,0.00,SCT,,0.00,WeatherDisplay:10.37,2013-01-13 08:23:00,
2013-01-13 00:24:00,33.9,24.8,30.22,ENE,71,0.0,0.0,69,0.00,SCT,,0.00,WeatherDisplay:10.37,2013-01-13 08:24:00,
2013-01-13 00:25:00,33.9,24.8,30.22,ENE,71,0.0,0.0,69,0.00,SCT,,0.00,WeatherDisplay:10.37,2013-01-13 08:25:00,
2013-01-13 00:28:00,33.9,24.8,30.22,ENE,71,0.0,0.0,69,0.00,SCT,,0.00,WeatherDisplay:10.37,2013-01-13 08:28:00,
2013-01-13 00:29:00,33.9,24.8,30.22,ENE,71,0.0,0.0,69,0.00,SCT,,0.00,WeatherDisplay:10.37,2013-01-13 08:29:00,
2013-01-13 00:30:00,33.9,24.8,30.22,ENE,71,0.0,0.0,69,0.00,SCT,,0.00,WeatherDisplay:10.37,2013-01-13 08:30:00,
2013-01-13 00:33:00,33.7,24.6,30.22,ENE,71,0.0,0.0,69,0.00,SCT,,0.00,WeatherDisplay:10.37,2013-01-13 08:33:00,
2013-01-13 00:34:00,33.7,24.6,30.22,ENE,71,0.0,0.0,69,0.00,SCT,,0.00,WeatherDisplay:10.37,2013-01-13 08:34:00,
2013-01-13 00:35:00,33.7,25.0,30.22,ENE,71,0.0,0.0,70,0.00,SCT,,0.00,WeatherDisplay:10.37,2013-01-13 08:35:00,
2013-01-13 00:38:00,33.7,24.6,30.22,ENE,71,0.0,0.0,69,0.00,SCT,,0.00,WeatherDisplay:10.37,2013-01-13 08:38:00,
2013-01-13 00:39:00,33.6,24.5,30.22,ENE,71,0.0,0.0,69,0.00,SCT,,0.00,WeatherDisplay:10.37,2013-01-13 08:39:00,
2013-01-13 00:40:00,33.6,24.5,30.22,ENE,71,0.0,0.0,69,0.00,SCT,,0.00,WeatherDisplay:10.37,2013-01-13 08:40:00,
2013-01-13 00:43:00,33.6,24.5,30.22,ENE,71,0.0,0.0,69,0.00,SCT,,0.00,WeatherDisplay:10.37,2013-01-13 08:43:00,
2013-01-13 00:44:00,33.6,24.9,30.21,ENE,71,0.0,0.0,70,0.00,SCT,,0.00,WeatherDisplay:10.37,2013-01-13 08:44:00,
2013-01-13 00:45:00,33.6,24.5,30.21,ENE,71,0.0,0.0,69,0.00,SCT,,0.00,WeatherDisplay:10.37,2013-01-13 08:45:00,
2013-01-13 00:48:00,33.5,24.4,30.21,ENE,71,0.0,0.0,69,0.00,SCT,,0.00,WeatherDisplay:10.37,2013-01-13 08:48:00,
2013-01-13 00:49:00,33.4,24.3,30.21,ENE,71,0.0,0.0,69,0.00,SCT,,0.00,WeatherDisplay:10.37,2013-01-13 08:49:00,
2013-01-13 00:50:00,33.4,24.3,30.21,ENE,71,0.0,0.0,69,0.00,SCT,,0.00,WeatherDisplay:10.37,2013-01-13 08:50:00,
2013-01-13 00:53:00,33.3,24.6,30.21,ENE,71,0.0,0.0,70,0.00,SCT,,0.00,WeatherDisplay:10.37,2013-01-13 08:53:00,
2013-01-13 00:55:00,33.3,24.6,30.22,ENE,71,0.0,0.0,70,0.00,SCT,,0.00,WeatherDisplay:10.37,2013-01-13 08:55:00,
2013-01-13 00:59:00,33.3,24.2,30.22,ENE,71,0.0,0.0,69,0.00,SCT,,0.00,WeatherDisplay:10.37,2013-01-13 08:59:00,
2013-01-13 01:00:00,33.3,24.2,30.22,ENE,71,0.0,0.0,69,0.00,SCT,,0.00,WeatherDisplay:10.37,2013-01-13 09:00:00,
2013-01-13 01:01:00,33.3,24.6,30.22,ENE,71,0.0,0.0,70,0.00,SCT,,0.00,WeatherDisplay:10.37,2013-01-13 09:01:00,
2013-01-13 01:04:00,33.2,24.5,30.22,ENE,71,0.0,0.0,70,0.00,SCT,,0.00,WeatherDisplay:10.37,2013-01-13 09:04:00,
2013-01-13 01:05:00,33.2,24.1,30.22,ENE,71,0.0,0.0,69,0.00,SCT,,0.00,WeatherDisplay:10.37,2013-01-13 09:05:00,
2013-01-13 01:06:00,33.2,24.5,30.22,ENE,71,0.0,0.0,70,0.00,SCT,,0.00,WeatherDisplay:10.37,2013-01-13 09:06:00,
2013-01-13 01:09:00,33.0,24.3,30.22,ENE,71,0.0,0.0,70,0.00,SCT,,0.00,WeatherDisplay:10.37,2013-01-13 09:09:00,
2013-01-13 01:10:00,33.0,24.3,30.22,ENE,71,0.0,0.0,70,0.00,SCT,,0.00,WeatherDisplay:10.37,2013-01-13 09:10:00,
2013-01-13 01:11:00,33.0,24.3,30.22,ENE,71,0.0,0.0,70,0.00,SCT,,0.00,WeatherDisplay:10.37,2013-01-13 09:11:00,
2013-01-13 01:14:00,33.0,24.3,30.22,ENE,71,0.0,0.0,70,0.00,SCT,,0.00,WeatherDisplay:10.37,2013-01-13 09:14:00,
2013-01-13 01:16:00,32.9,24.2,30.22,ENE,71,0.0,0.0,70,0.00,SCT,,0.00,WeatherDisplay:10.37,2013-01-13 09:16:00,
2013-01-13 01:17:00,32.8,24.1,30.22,ENE,71,0.0,0.0,70,0.00,SCT,,0.00,WeatherDisplay:10.37,2013-01-13 09:17:00,
2013-01-13 01:19:00,32.8,24.4,30.22,ENE,71,0.0,0.0,71,0.00,SCT,,0.00,WeatherDisplay:10.37,2013-01-13 09:19:00,
2013-01-13 01:21:00,32.7,24.3,30.22,ENE,71,0.0,0.0,71,0.00,SCT,,0.00,WeatherDisplay:10.37,2013-01-13 09:21:00,
2013-01-13 01:22:00,32.7,24.3,30.22,ENE,71,0.0,0.0,71,0.00,SCT,,0.00,WeatherDisplay:10.37,2013-01-13 09:22:00,
2013-01-13 01:25:00,32.7,24.3,30.22,ENE,71,0.0,0.0,71,0.00,SCT,,0.00,WeatherDisplay:10.37,2013-01-13 09:25:00,
2013-01-13 01:26:00,32.6,23.9,30.22,ENE,71,0.0,0.0,70,0.00,SCT,,0.00,WeatherDisplay:10.37,2013-01-13 09:26:00,
2013-01-13 01:27:00,32.6,23.9,30.22,ENE,71,0.0,0.0,70,0.00,SCT,,0.00,WeatherDisplay:10.37,2013-01-13 09:27:00,
2013-01-13 01:30:00,32.6,24.2,30.22,ENE,71,0.0,0.0,71,0.00,SCT,,0.00,WeatherDisplay:10.37,2013-01-13 09:30:00,
2013-01-13 01:31:00,32.5,24.1,30.22,ENE,71,0.0,0.0,71,0.00,SCT,,0.00,WeatherDisplay:10.37,2013-01-13 09:31:00,
2013-01-13 01:32:00,32.6,24.2,30.22,ENE,71,0.0,0.0,71,0.00,SCT,,0.00,WeatherDisplay:10.37,2013-01-13 09:32:00,
2013-01-13 01:35:00,32.5,24.1,30.22,ENE,71,0.0,0.0,71,0.00,SCT,,0.00,WeatherDisplay:10.37,2013-01-13 09:35:00,
2013-01-13 01:37:00,32.5,24.1,30.22,ENE,71,0.0,0.0,71,0.00,SCT,,0.00,WeatherDisplay:10.37,2013-01-13 09:37:00,
2013-01-13 01:40:00,32.4,23.7,30.22,ENE,71,0.0,0.0,70,0.00,SCT,,0.00,WeatherDisplay:10.37,2013-01-13 09:40:00,
2013-01-13 01:42:00,32.3,23.9,30.23,ENE,71,0.0,0.0,71,0.00,SCT,,0.00,WeatherDisplay:10.37,2013-01-13 09:42:00,
2013-01-13 01:45:00,32.4,24.0,30.23,ENE,71,0.0,0.0,71,0.00,SCT,,0.00,WeatherDisplay:10.37,2013-01-13 09:45:00,
2013-01-13 01:47:00,32.4,24.0,30.23,ENE,71,0.0,0.0,71,0.00,SCT,,0.00,WeatherDisplay:10.37,2013-01-13 09:47:00,
2013-01-13 01:48:00,32.4,23.7,30.23,ENE,71,0.0,0.0,70,0.00,SCT,,0.00,WeatherDisplay:10.37,2013-01-13 09:48:00,
2013-01-13 01:50:00,32.3,23.6,30.23,ENE,71,0.0,0.0,70,0.00,SCT,,0.00,WeatherDisplay:10.37,2013-01-13 09:50:00,
2013-01-13 01:52:00,32.3,23.9,30.23,ENE,71,0.0,0.0,71,0.00,SCT,,0.00,WeatherDisplay:10.37,2013-01-13 09:52:00,
2013-01-13 01:53:00,32.3,23.9,30.22,ENE,71,0.0,0.0,71,0.00,SCT,,0.00,WeatherDisplay:10.37,2013-01-13 09:53:00,
2013-01-13 01:56:00,32.2,23.8,30.23,ENE,71,0.0,0.0,71,0.00,SCT,,0.00,WeatherDisplay:10.37,2013-01-13 09:56:00,
2013-01-13 01:57:00,32.2,23.8,30.23,ENE,71,0.0,0.0,71,0.00,SCT,,0.00,WeatherDisplay:10.37,2013-01-13 09:57:00,
2013-01-13 01:58:00,32.2,23.8,30.23,ENE,71,0.0,0.0,71,0.00,SCT,,0.00,WeatherDisplay:10.37,2013-01-13 09:58:00,
2013-01-13 02:01:00,32.2,23.8,30.23,ENE,71,0.0,0.0,71,0.00,SCT,,0.00,WeatherDisplay:10.37,2013-01-13 10:01:00,
2013-01-13 02:02:00,32.2,23.8,30.23,ENE,71,0.0,0.0,71,0.00,SCT,,0.00,WeatherDisplay:10.37,2013-01-13 10:02:00,
2013-01-13 02:03:00,32.2,23.8,30.23,ENE,71,0.0,0.0,71,0.00,SCT,,0.00,WeatherDisplay:10.37,2013-01-13 10:03:00,
2013-01-13 02:06:00,32.2,23.8,30.23,ENE,71,0.0,0.0,71,0.00,SCT,,0.00,WeatherDisplay:10.37,2013-01-13 10:06:00,
2013-01-13 02:07:00,32.2,23.8,30.23,ENE,71,0.0,0.0,71,0.00,SCT,,0.00,WeatherDisplay:10.37,2013-01-13 10:07:00,
2013-01-13 02:08:00,32.2,23.8,30.23,ENE,71,0.0,0.0,71,0.00,SCT,,0.00,WeatherDisplay:10.37,2013-01-13 10:08:00,
2013-01-13 02:12:00,32.1,23.8,30.23,ENE,71,0.0,0.0,71,0.00,SCT,,0.00,WeatherDisplay:10.37,2013-01-13 10:12:00,
2013-01-13 02:13:00,32.1,23.8,30.23,ENE,71,0.0,0.0,71,0.00,SCT,,0.00,WeatherDisplay:10.37,2013-01-13 10:13:00,
2013-01-13 02:17:00,32.1,24.1,30.23,ENE,71,0.0,0.0,72,0.00,SCT,,0.00,WeatherDisplay:10.37,2013-01-13 10:17:00,
2013-01-13 02:18:00,32.0,23.7,30.23,ENE,71,0.0,0.0,71,0.00,SCT,,0.00,WeatherDisplay:10.37,2013-01-13 10:18:00,
2013-01-13 02:22:00,31.9,23.6,30.24,ENE,71,0.0,0.0,71,0.00,SCT,,0.00,WeatherDisplay:10.37,2013-01-13 10:22:00,
2013-01-13 02:23:00,32.0,24.0,30.23,ENE,71,0.0,0.0,72,0.00,SCT,,0.00,WeatherDisplay:10.37,2013-01-13 10:23:00,
2013-01-13 02:24:00,31.9,23.6,30.23,ENE,71,0.0,0.0,71,0.00,SCT,,0.00,WeatherDisplay:10.37,2013-01-13 10:24:00,
2013-01-13 02:27:00,31.7,23.4,30.24,ENE,71,0.0,0.0,71,0.00,SCT,,0.00,WeatherDisplay:10.37,2013-01-13 10:27:00,
2013-01-13 02:28:00,31.7,23.4,30.24,ENE,71,0.0,0.0,71,0.00,SCT,,0.00,WeatherDisplay:10.37,2013-01-13 10:28:00,
2013-01-13 02:29:00,31.7,23.7,30.24,ENE,71,0.0,0.0,72,0.00,SCT,,0.00,WeatherDisplay:10.37,2013-01-13 10:29:00,
2013-01-13 02:32:00,31.7,23.7,30.23,ENE,71,0.0,0.0,72,0.00,SCT,,0.00,WeatherDisplay:10.37,2013-01-13 10:32:00,
2013-01-13 02:33:00,31.7,23.7,30.23,ENE,71,0.0,0.0,72,0.00,SCT,,0.00,WeatherDisplay:10.37,2013-01-13 10:33:00,
2013-01-13 02:34:00,31.7,23.7,30.23,ENE,72,0.0,0.0,72,0.00,SCT,,0.00,WeatherDisplay:10.37,2013-01-13 10:34:00,
2013-01-13 02:37:00,31.6,23.6,30.23,ENE,72,0.0,0.0,72,0.00,SCT,,0.00,WeatherDisplay:10.37,2013-01-13 10:37:00,
2013-01-13 02:38:00,31.6,23.6,30.24,ENE,72,0.0,0.0,72,0.00,SCT,,0.00,WeatherDisplay:10.37,2013-01-13 10:38:00,
2013-01-13 02:39:00,31.6,23.3,30.24,ENE,72,0.0,0.0,71,0.00,SCT,,0.00,WeatherDisplay:10.37,2013-01-13 10:39:00,
2013-01-13 02:42:00,31.5,23.5,30.24,ENE,72,0.0,0.0,72,0.00,SCT,,0.00,WeatherDisplay:10.37,2013-01-13 10:42:00,
2013-01-13 02:43:00,31.5,23.5,30.24,ENE,72,0.0,0.0,72,0.00,SCT,,0.00,WeatherDisplay:10.37,2013-01-13 10:43:00,
2013-01-13 02:44:00,31.5,23.5,30.24,ENE,72,0.0,0.0,72,0.00,SCT,,0.00,WeatherDisplay:10.37,2013-01-13 10:44:00,
2013-01-13 02:47:00,31.4,23.4,30.23,ENE,72,0.0,0.0,72,0.00,SCT,,0.00,WeatherDisplay:10.37,2013-01-13 10:47:00,
2013-01-13 02:48:00,31.4,23.1,30.24,ENE,72,0.0,0.0,71,0.00,SCT,,0.00,WeatherDisplay:10.37,2013-01-13 10:48:00,
2013-01-13 02:49:00,31.4,23.1,30.23,ENE,72,0.0,0.0,71,0.00,SCT,,0.00,WeatherDisplay:10.37,2013-01-13 10:49:00,
2013-01-13 02:52:00,31.4,23.1,30.23,ENE,72,0.0,0.0,71,0.00,SCT,,0.00,WeatherDisplay:10.37,2013-01-13 10:52:00,
2013-01-13 02:53:00,31.3,23.0,30.23,ENE,72,0.0,0.0,71,0.00,SCT,,0.00,WeatherDisplay:10.37,2013-01-13 10:53:00,
2013-01-13 02:54:00,31.3,23.3,30.23,ENE,72,0.0,0.0,72,0.00,SCT,,0.00,WeatherDisplay:10.37,2013-01-13 10:54:00,
2013-01-13 02:57:00,31.2,23.2,30.23,ENE,72,0.0,0.0,72,0.00,SCT,,0.00,WeatherDisplay:10.37,2013-01-13 10:57:00,
2013-01-13 02:58:00,31.2,23.2,30.23,ENE,72,0.0,0.0,72,0.00,SCT,,0.00,WeatherDisplay:10.37,2013-01-13 10:58:00,
2013-01-13 02:59:00,31.2,23.2,30.23,ENE,72,0.0,0.0,72,0.00,SCT,,0.00,WeatherDisplay:10.37,2013-01-13 10:59:00,
2013-01-13 03:03:00,31.2,23.2,30.23,ENE,72,0.0,0.0,72,0.00,SCT,,0.00,WeatherDisplay:10.37,2013-01-13 11:03:00,
2013-01-13 03:04:00,31.2,23.2,30.23,ENE,72,0.0,0.0,72,0.00,SCT,,0.00,WeatherDisplay:10.37,2013-01-13 11:04:00,
2013-01-13 03:08:00,31.2,23.2,30.23,ENE,72,0.0,0.0,72,0.00,SCT,,0.00,WeatherDisplay:10.37,2013-01-13 11:08:00,
2013-01-13 03:09:00,31.2,23.2,30.23,ENE,72,0.0,0.0,72,0.00,SCT,,0.00,WeatherDisplay:10.37,2013-01-13 11:09:00,
2013-01-13 03:13:00,31.1,23.1,30.23,ENE,72,0.0,0.0,72,0.00,SCT,,0.00,WeatherDisplay:10.37,2013-01-13 11:13:00,
2013-01-13 03:14:00,31.1,23.1,30.23,ENE,72,0.0,0.0,72,0.00,SCT,,0.00,WeatherDisplay:10.37,2013-01-13 11:14:00,
2013-01-13 03:19:00,31.0,23.0,30.23,ENE,72,0.0,0.0,72,0.00,SCT,,0.00,WeatherDisplay:10.37,2013-01-13 11:19:00,
2013-01-13 03:24:00,30.9,22.9,30.23,ENE,72,0.0,0.0,72,0.00,SCT,,0.00,WeatherDisplay:10.37,2013-01-13 11:24:00,
2013-01-13 03:25:00,30.9,22.6,30.23,ENE,72,0.0,0.0,71,0.00,SCT,,0.00,WeatherDisplay:10.37,2013-01-13 11:25:00,
2013-01-13 03:29:00,30.8,22.8,30.23,ENE,72,0.0,0.0,72,0.00,SCT,,0.00,WeatherDisplay:10.37,2013-01-13 11:29:00,
2013-01-13 03:30:00,30.9,22.9,30.23,ENE,72,0.0,0.0,72,0.00,SCT,,0.00,WeatherDisplay:10.37,2013-01-13 11:30:00,
2013-01-13 03:34:00,30.8,22.8,30.23,ENE,72,0.0,0.0,72,0.00,SCT,,0.00,WeatherDisplay:10.37,2013-01-13 11:34:00,
2013-01-13 03:35:00,30.8,22.8,30.23,ENE,72,0.0,0.0,72,0.00,SCT,,0.00,WeatherDisplay:10.37,2013-01-13 11:35:00,
2013-01-13 03:39:00,30.7,22.7,30.23,ENE,72,0.0,0.0,72,0.00,SCT,,0.00,WeatherDisplay:10.37,2013-01-13 11:39:00,
2013-01-13 03:40:00,30.7,22.7,30.23,ENE,72,0.0,0.0,72,0.00,SCT,,0.00,WeatherDisplay:10.37,2013-01-13 11:40:00,
2013-01-13 03:44:00,30.7,22.7,30.23,ENE,72,0.0,0.0,72,0.00,SCT,,0.00,WeatherDisplay:10.37,2013-01-13 11:44:00,
2013-01-13 03:45:00,30.7,22.7,30.23,ENE,72,0.0,0.0,72,0.00,SCT,,0.00,WeatherDisplay:10.37,2013-01-13 11:45:00,
2013-01-13 03:50:00,30.6,22.6,30.23,ENE,72,0.0,0.0,72,0.00,SCT,,0.00,WeatherDisplay:10.37,2013-01-13 11:50:00,
2013-01-13 03:55:00,30.5,22.5,30.23,ENE,72,0.0,0.0,72,0.00,SCT,,0.00,WeatherDisplay:10.37,2013-01-13 11:55:00,
2013-01-13 04:00:00,30.4,22.4,30.23,ENE,72,0.0,0.0,72,0.00,SCT,,0.00,WeatherDisplay:10.37,2013-01-13 12:00:00,
2013-01-13 04:01:00,30.4,22.4,30.23,ENE,72,0.0,0.0,72,0.00,SCT,,0.00,WeatherDisplay:10.37,2013-01-13 12:01:00,
2013-01-13 04:05:00,30.4,22.4,30.23,ENE,72,0.0,0.0,72,0.00,SCT,,0.00,WeatherDisplay:10.37,2013-01-13 12:05:00,
2013-01-13 04:06:00,30.3,22.4,30.24,ENE,72,0.0,0.0,72,0.00,SCT,,0.00,WeatherDisplay:10.37,2013-01-13 12:06:00,
2013-01-13 04:10:00,30.3,22.4,30.23,ENE,72,0.0,0.0,72,0.00,SCT,,0.00,WeatherDisplay:10.37,2013-01-13 12:10:00,
2013-01-13 04:11:00,30.3,22.4,30.23,ENE,72,0.0,0.0,72,0.00,SCT,,0.00,WeatherDisplay:10.37,2013-01-13 12:11:00,
2013-01-13 04:15:00,30.2,22.3,30.23,ENE,72,0.0,0.0,72,0.00,SCT,,0.00,WeatherDisplay:10.37,2013-01-13 12:15:00,
2013-01-13 04:16:00,30.2,22.3,30.23,ENE,72,0.0,0.0,72,0.00,SCT,,0.00,WeatherDisplay:10.37,2013-01-13 12:16:00,
2013-01-13 04:20:00,30.2,22.3,30.23,ENE,72,0.0,0.0,72,0.00,SCT,,0.00,WeatherDisplay:10.37,2013-01-13 12:20:00,
2013-01-13 04:21:00,30.1,22.2,30.23,ENE,72,0.0,0.0,72,0.00,SCT,,0.00,WeatherDisplay:10.37,2013-01-13 12:21:00,
2013-01-13 04:25:00,30.2,22.3,30.23,ENE,72,0.0,0.0,72,0.00,SCT,,0.00,WeatherDisplay:10.37,2013-01-13 12:25:00,
2013-01-13 04:26:00,30.2,22.3,30.23,ENE,72,0.0,0.0,72,0.00,SCT,,0.00,WeatherDisplay:10.37,2013-01-13 12:26:00,
2013-01-13 04:30:00,29.9,22.0,30.22,ENE,72,0.0,0.0,72,0.00,SCT,,0.00,WeatherDisplay:10.37,2013-01-13 12:30:00,
2013-01-13 04:31:00,29.9,22.0,30.23,ENE,72,0.0,0.0,72,0.00,SCT,,0.00,WeatherDisplay:10.37,2013-01-13 12:31:00,
2013-01-13 04:36:00,30.0,22.1,30.23,ENE,72,0.0,0.0,72,0.00,SCT,,0.00,WeatherDisplay:10.37,2013-01-13 12:36:00,
2013-01-13 04:41:00,29.8,21.9,30.23,ENE,72,0.0,0.0,72,0.00,SCT,,0.00,WeatherDisplay:10.37,2013-01-13 12:41:00,
2013-01-13 04:46:00,29.8,22.2,30.22,ENE,72,0.0,0.0,73,0.00,SCT,,0.00,WeatherDisplay:10.37,2013-01-13 12:46:00,
2013-01-13 04:47:00,29.8,21.9,30.23,ENE,72,0.0,0.0,72,0.00,SCT,,0.00,WeatherDisplay:10.37,2013-01-13 12:47:00,
2013-01-13 04:51:00,29.8,21.9,30.23,ENE,72,0.0,0.0,72,0.00,SCT,,0.00,WeatherDisplay:10.37,2013-01-13 12:51:00,
2013-01-13 04:52:00,29.8,22.2,30.23,ENE,72,0.0,0.0,73,0.00,SCT,,0.00,WeatherDisplay:10.37,2013-01-13 12:52:00,
2013-01-13 04:56:00,29.7,21.8,30.23,ENE,72,0.0,0.0,72,0.00,SCT,,0.00,WeatherDisplay:10.37,2013-01-13 12:56:00,
2013-01-13 04:57:00,29.6,21.7,30.23,ENE,72,0.0,0.0,72,0.00,SCT,,0.00,WeatherDisplay:10.37,2013-01-13 12:57:00,
2013-01-13 05:01:00,29.7,21.8,30.23,ENE,72,0.0,0.0,72,0.00,SCT,,0.00,WeatherDisplay:10.37,2013-01-13 13:01:00,
2013-01-13 05:02:00,29.7,21.8,30.23,ENE,72,0.0,0.0,72,0.00,SCT,,0.00,WeatherDisplay:10.37,2013-01-13 13:02:00,
2013-01-13 05:06:00,29.6,21.7,30.23,ENE,72,0.0,0.0,72,0.00,SCT,,0.00,WeatherDisplay:10.37,2013-01-13 13:06:00,
2013-01-13 05:07:00,29.6,21.7,30.23,ENE,72,0.0,0.0,72,0.00,SCT,,0.00,WeatherDisplay:10.37,2013-01-13 13:07:00,
2013-01-13 05:11:00,29.6,21.7,30.23,ENE,72,0.0,0.0,72,0.00,SCT,,0.00,WeatherDisplay:10.37,2013-01-13 13:11:00,
2013-01-13 05:12:00,29.6,21.7,30.23,ENE,72,0.0,0.0,72,0.00,SCT,,0.00,WeatherDisplay:10.37,2013-01-13 13:12:00,
2013-01-13 05:16:00,29.6,21.7,30.24,ENE,72,0.0,0.0,72,0.00,SCT,,0.00,WeatherDisplay:10.37,2013-01-13 13:16:00,
2013-01-13 05:17:00,29.6,21.7,30.24,ENE,72,0.0,0.0,72,0.00,SCT,,0.00,WeatherDisplay:10.37,2013-01-13 13:17:00,
2013-01-13 05:22:00,29.5,21.3,30.24,ENE,72,0.0,0.0,71,0.00,SCT,,0.00,WeatherDisplay:10.37,2013-01-13 13:22:00,
2013-01-13 05:23:00,29.5,21.3,30.24,ENE,72,0.0,0.0,71,0.00,SCT,,0.00,WeatherDisplay:10.37,2013-01-13 13:23:00,
2013-01-13 05:27:00,29.5,21.6,30.25,ENE,72,0.0,0.0,72,0.00,SCT,,0.00,WeatherDisplay:10.37,2013-01-13 13:27:00,
2013-01-13 05:28:00,29.5,21.6,30.25,ENE,72,0.0,0.0,72,0.00,SCT,,0.00,WeatherDisplay:10.37,2013-01-13 13:28:00,
2013-01-13 05:32:00,29.4,21.5,30.25,ENE,72,0.0,0.0,72,0.00,SCT,,0.00,WeatherDisplay:10.37,2013-01-13 13:32:00,
2013-01-13 05:33:00,29.4,21.5,30.24,ENE,72,0.0,0.0,72,0.00,SCT,,0.00,WeatherDisplay:10.37,2013-01-13 13:33:00,
2013-01-13 05:37:00,29.3,21.1,30.25,ENE,72,0.0,0.0,71,0.00,SCT,,0.00,WeatherDisplay:10.37,2013-01-13 13:37:00,
2013-01-13 05:38:00,29.3,21.1,30.24,ENE,72,0.0,0.0,71,0.00,SCT,,0.00,WeatherDisplay:10.37,2013-01-13 13:38:00,
2013-01-13 05:42:00,29.2,21.3,30.25,ENE,72,0.0,0.0,72,0.00,SCT,,0.00,WeatherDisplay:10.37,2013-01-13 13:42:00,
2013-01-13 05:43:00,29.2,21.3,30.25,ENE,72,0.0,0.0,72,0.00,SCT,,0.00,WeatherDisplay:10.37,2013-01-13 13:43:00,
2013-01-13 05:47:00,29.2,21.3,30.25,ENE,72,0.0,0.0,72,0.00,SCT,,0.00,WeatherDisplay:10.37,2013-01-13 13:47:00,
2013-01-13 05:48:00,29.2,21.3,30.25,ENE,72,0.0,0.0,72,0.00,SCT,,0.00,WeatherDisplay:10.37,2013-01-13 13:48:00,
2013-01-13 05:52:00,29.1,21.2,30.25,ENE,72,0.0,0.0,72,0.00,SCT,,0.00,WeatherDisplay:10.37,2013-01-13 13:52:00,
2013-01-13 05:53:00,29.1,21.2,30.25,ENE,72,0.0,0.0,72,0.00,SCT,,0.00,WeatherDisplay:10.37,2013-01-13 13:53:00,
2013-01-13 05:57:00,29.1,21.2,30.25,ENE,72,0.0,0.0,72,0.00,SCT,,0.00,WeatherDisplay:10.37,2013-01-13 13:57:00,
2013-01-13 05:58:00,29.1,21.2,30.25,ENE,72,0.0,0.0,72,0.00,SCT,,0.00,WeatherDisplay:10.37,2013-01-13 13:58:00,
2013-01-13 05:59:00,29.1,20.9,30.25,ENE,72,0.0,0.0,71,0.00,SCT,,0.00,WeatherDisplay:10.37,2013-01-13 13:59:00,
2013-01-13 06:02:00,29.0,21.4,30.25,ENE,72,0.0,0.0,73,0.00,SCT,,0.00,WeatherDisplay:10.37,2013-01-13 14:02:00,
2013-01-13 06:03:00,29.0,21.4,30.25,ENE,72,0.0,0.0,73,0.00,SCT,,0.00,WeatherDisplay:10.37,2013-01-13 14:03:00,
2013-01-13 06:04:00,29.0,21.4,30.25,ENE,72,0.0,0.0,73,0.00,SCT,,0.00,WeatherDisplay:10.37,2013-01-13 14:04:00,
2013-01-13 06:08:00,28.9,21.0,30.25,ENE,72,0.0,0.0,72,0.00,SCT,,0.00,WeatherDisplay:10.37,2013-01-13 14:08:00,
2013-01-13 06:09:00,28.9,21.0,30.25,ENE,72,0.0,0.0,72,0.00,SCT,,0.00,WeatherDisplay:10.37,2013-01-13 14:09:00,
2013-01-13 06:13:00,28.9,21.0,30.25,ENE,72,0.0,0.0,72,0.00,SCT,,0.00,WeatherDisplay:10.37,2013-01-13 14:13:00,
2013-01-13 06:14:00,28.9,21.0,30.25,ENE,72,0.0,0.0,72,0.00,SCT,,0.00,WeatherDisplay:10.37,2013-01-13 14:14:00,
2013-01-13 06:18:00,28.8,20.9,30.25,ENE,72,0.0,0.0,72,0.00,SCT,,0.00,WeatherDisplay:10.37,2013-01-13 14:18:00,
2013-01-13 06:19:00,28.8,20.9,30.25,ENE,72,0.0,0.0,72,0.00,SCT,,0.00,WeatherDisplay:10.37,2013-01-13 14:19:00,
2013-01-13 06:23:00,28.9,21.3,30.25,ENE,72,0.0,0.0,73,0.00,SCT,,0.00,WeatherDisplay:10.37,2013-01-13 14:23:00,
2013-01-13 06:24:00,28.8,20.9,30.25,ENE,72,0.0,0.0,72,0.00,SCT,,0.00,WeatherDisplay:10.37,2013-01-13 14:24:00,
2013-01-13 06:28:00,28.7,20.8,30.25,ENE,72,0.0,0.0,72,0.00,SCT,,0.00,WeatherDisplay:10.37,2013-01-13 14:28:00,
2013-01-13 06:29:00,28.7,20.8,30.25,ENE,72,0.0,0.0,72,0.00,SCT,,0.00,WeatherDisplay:10.37,2013-01-13 14:29:00,
2013-01-13 06:33:00,28.6,20.7,30.26,ENE,72,0.0,0.0,72,0.00,SCT,,0.00,WeatherDisplay:10.37,2013-01-13 14:33:00,
2013-01-13 06:34:00,28.6,20.7,30.25,ENE,72,0.0,0.0,72,0.00,SCT,,0.00,WeatherDisplay:10.37,2013-01-13 14:34:00,
2013-01-13 06:38:00,28.6,21.0,30.26,ENE,72,0.0,0.0,73,0.00,SCT,,0.00,WeatherDisplay:10.37,2013-01-13 14:38:00,
2013-01-13 06:39:00,28.6,21.0,30.26,ENE,72,0.0,0.0,73,0.00,SCT,,0.00,WeatherDisplay:10.37,2013-01-13 14:39:00,
2013-01-13 06:44:00,28.6,20.7,30.26,ENE,72,0.0,0.0,72,0.00,SCT,,0.00,WeatherDisplay:10.37,2013-01-13 14:44:00,
2013-01-13 06:45:00,28.6,21.0,30.26,ENE,72,0.0,0.0,73,0.00,SCT,,0.00,WeatherDisplay:10.37,2013-01-13 14:45:00,
2013-01-13 06:49:00,28.6,20.4,30.26,ENE,72,0.0,0.0,71,0.00,SCT,,0.00,WeatherDisplay:10.37,2013-01-13 14:49:00,
2013-01-13 06:50:00,28.6,20.7,30.26,ENE,72,0.0,0.0,72,0.00,SCT,,0.00,WeatherDisplay:10.37,2013-01-13 14:50:00,
2013-01-13 06:54:00,28.5,20.6,30.26,ENE,72,0.0,0.0,72,0.00,SCT,,0.00,WeatherDisplay:10.37,2013-01-13 14:54:00,
2013-01-13 06:55:00,28.5,20.6,30.26,ENE,72,0.0,0.0,72,0.00,SCT,,0.00,WeatherDisplay:10.37,2013-01-13 14:55:00,
2013-01-13 06:59:00,28.5,20.6,30.27,ENE,72,0.0,0.0,72,0.00,SCT,,0.00,WeatherDisplay:10.37,2013-01-13 14:59:00,
2013-01-13 07:00:00,28.5,20.6,30.26,ENE,72,0.0,0.0,72,0.00,SCT,,0.00,WeatherDisplay:10.37,2013-01-13 15:00:00,
2013-01-13 07:04:00,28.5,20.9,30.27,ENE,72,0.0,0.0,73,0.00,SCT,,0.00,WeatherDisplay:10.37,2013-01-13 15:04:00,
2013-01-13 07:05:00,28.5,20.9,30.27,ENE,72,0.0,0.0,73,0.00,SCT,,0.00,WeatherDisplay:10.37,2013-01-13 15:05:00,
2013-01-13 07:06:00,28.5,20.9,30.27,ENE,72,0.0,0.0,73,0.00,SCT,,0.00,WeatherDisplay:10.37,2013-01-13 15:06:00,
2013-01-13 07:09:00,28.4,20.5,30.27,ENE,72,0.0,0.0,72,0.00,SCT,,0.00,WeatherDisplay:10.37,2013-01-13 15:09:00,
2013-01-13 07:10:00,28.4,20.5,30.27,ENE,72,0.0,0.0,72,0.00,SCT,,0.00,WeatherDisplay:10.37,2013-01-13 15:10:00,
2013-01-13 07:11:00,28.4,20.5,30.27,ENE,72,0.0,0.0,72,0.00,SCT,,0.00,WeatherDisplay:10.37,2013-01-13 15:11:00,
2013-01-13 07:15:00,28.3,20.4,30.27,ENE,72,0.0,0.0,72,0.00,SCT,,0.00,WeatherDisplay:10.37,2013-01-13 15:15:00,
2013-01-13 07:16:00,28.3,20.4,30.27,ENE,72,0.0,0.0,72,0.00,SCT,,0.00,WeatherDisplay:10.37,2013-01-13 15:16:00,
2013-01-13 07:20:00,28.2,20.3,30.27,ENE,72,0.0,0.0,72,0.00,SCT,,0.00,WeatherDisplay:10.37,2013-01-13 15:20:00,
2013-01-13 07:21:00,28.2,20.3,30.27,ENE,72,0.0,0.0,72,0.00,SCT,,0.00,WeatherDisplay:10.37,2013-01-13 15:21:00,
2013-01-13 07:26:00,28.1,20.2,30.28,ENE,72,0.0,0.0,72,0.00,SCT,,0.00,WeatherDisplay:10.37,2013-01-13 15:26:00,
2013-01-13 07:27:00,28.1,20.2,30.27,ENE,72,0.0,0.0,72,0.00,SCT,,0.00,WeatherDisplay:10.37,2013-01-13 15:27:00,
2013-01-13 07:31:00,28.1,20.2,30.27,ENE,72,0.0,0.0,72,0.00,SCT,,0.00,WeatherDisplay:10.37,2013-01-13 15:31:00,
2013-01-13 07:32:00,28.1,20.6,30.27,ENE,72,0.0,0.0,73,0.00,SCT,,0.00,WeatherDisplay:10.37,2013-01-13 15:32:00,
2013-01-13 07:36:00,28.1,20.2,30.27,ENE,72,0.0,0.0,72,0.00,SCT,,0.00,WeatherDisplay:10.37,2013-01-13 15:36:00,
2013-01-13 07:37:00,28.1,20.2,30.27,ENE,72,0.0,0.0,72,0.00,SCT,,0.00,WeatherDisplay:10.37,2013-01-13 15:37:00,
2013-01-13 07:41:00,28.1,20.2,30.27,ENE,72,0.0,0.0,72,0.00,SCT,,0.00,WeatherDisplay:10.37,2013-01-13 15:41:00,
2013-01-13 07:42:00,28.0,20.1,30.27,ENE,72,0.0,0.0,72,0.00,SCT,,0.00,WeatherDisplay:10.37,2013-01-13 15:42:00,
2013-01-13 07:46:00,28.1,20.2,30.27,ENE,72,0.0,0.0,72,0.00,SCT,,0.00,WeatherDisplay:10.37,2013-01-13 15:46:00,
2013-01-13 07:47:00,28.1,20.2,30.27,ENE,72,0.0,0.0,72,0.00,SCT,,0.00,WeatherDisplay:10.37,2013-01-13 15:47:00,
2013-01-13 08:02:00,28.3,21.1,30.27,ENE,72,0.0,0.0,74,0.00,CLR,,0.00,WeatherDisplay:10.37,2013-01-13 16:02:00,
2013-01-13 08:03:00,28.3,21.1,30.27,ENE,72,0.0,0.0,74,0.00,CLR,,0.00,WeatherDisplay:10.37,2013-01-13 16:03:00,
2013-01-13 08:08:00,28.5,20.9,30.27,ENE,72,0.0,0.0,73,0.00,SCT,,0.00,WeatherDisplay:10.37,2013-01-13 16:08:00,
2013-01-13 08:13:00,29.0,21.7,30.27,ENE,72,0.0,0.0,74,0.00,SCT,,0.00,WeatherDisplay:10.37,2013-01-13 16:13:00,
2013-01-13 08:18:00,29.6,21.7,30.28,ENE,72,0.0,0.0,72,0.00,SCT,,0.00,WeatherDisplay:10.37,2013-01-13 16:18:00,
2013-01-13 08:23:00,30.3,22.7,30.28,ENE,72,0.0,0.0,73,0.00,SCT,,0.00,WeatherDisplay:10.37,2013-01-13 16:23:00,
2013-01-13 08:28:00,31.0,22.7,30.28,ENE,72,0.0,0.0,71,0.00,SCT,,0.00,WeatherDisplay:10.37,2013-01-13 16:28:00,
2013-01-13 08:29:00,31.1,22.8,30.28,ENE,72,0.0,0.0,71,0.00,SCT,,0.00,WeatherDisplay:10.37,2013-01-13 16:29:00,
2013-01-13 08:33:00,31.5,23.2,30.28,ENE,72,0.0,0.0,71,0.00,SCT,,0.00,WeatherDisplay:10.37,2013-01-13 16:33:00,
2013-01-13 08:34:00,31.7,23.4,30.28,ENE,72,0.0,0.0,71,0.00,SCT,,0.00,WeatherDisplay:10.37,2013-01-13 16:34:00,
2013-01-13 08:38:00,32.1,23.4,30.28,ENE,72,0.0,0.0,70,0.00,SCT,,0.00,WeatherDisplay:10.37,2013-01-13 16:38:00,
2013-01-13 08:39:00,32.2,23.5,30.28,ENE,72,0.0,0.0,70,0.00,SCT,,0.00,WeatherDisplay:10.37,2013-01-13 16:39:00,
2013-01-13 08:43:00,32.7,23.3,30.28,ENE,71,0.0,0.0,68,0.00,SCT,,0.00,WeatherDisplay:10.37,2013-01-13 16:43:00,
2013-01-13 08:45:00,32.8,23.4,30.28,ENE,71,0.0,0.0,68,0.00,SCT,,0.00,WeatherDisplay:10.37,2013-01-13 16:45:00,
2013-01-13 08:48:00,33.2,23.4,30.28,ENE,71,0.0,0.0,67,0.00,SCT,,0.00,WeatherDisplay:10.37,2013-01-13 16:48:00,
2013-01-13 08:49:00,33.2,23.4,30.28,ENE,71,0.0,0.0,67,0.00,SCT,,0.00,WeatherDisplay:10.37,2013-01-13 16:49:00,
2013-01-13 08:50:00,33.3,23.2,30.28,ENE,71,0.0,0.0,66,0.00,SCT,,0.00,WeatherDisplay:10.37,2013-01-13 16:50:00,
2013-01-13 08:54:00,33.6,23.4,30.28,ENE,71,0.0,0.0,66,0.00,SCT,,0.00,WeatherDisplay:10.37,2013-01-13 16:54:00,
2013-01-13 08:55:00,33.7,23.5,30.28,ENE,71,0.0,0.0,66,0.00,SCT,,0.00,WeatherDisplay:10.37,2013-01-13 16:55:00,
2013-01-13 08:59:00,33.9,23.7,30.27,ENE,71,0.0,0.0,66,0.00,SCT,,0.00,WeatherDisplay:10.37,2013-01-13 16:59:00,
2013-01-13 09:00:00,34.0,23.8,30.28,ENE,71,0.0,0.0,66,0.00,SCT,,0.00,WeatherDisplay:10.37,2013-01-13 17:00:00,
2013-01-13 09:04:00,34.2,24.0,30.28,ENE,71,0.0,0.0,66,0.00,SCT,,0.00,WeatherDisplay:10.37,2013-01-13 17:04:00,
2013-01-13 09:05:00,34.3,24.1,30.28,ENE,71,0.0,0.0,66,0.00,SCT,,0.00,WeatherDisplay:10.37,2013-01-13 17:05:00,
2013-01-13 09:09:00,34.6,24.0,30.28,ENE,71,0.0,0.0,65,0.00,SCT,,0.00,WeatherDisplay:10.37,2013-01-13 17:09:00,
2013-01-13 09:10:00,34.7,24.1,30.28,ENE,71,0.0,0.0,65,0.00,SCT,,0.00,WeatherDisplay:10.37,2013-01-13 17:10:00,
2013-01-13 09:14:00,34.8,23.5,30.28,ENE,71,0.0,0.0,63,0.00,SCT,,0.00,WeatherDisplay:10.37,2013-01-13 17:14:00,
2013-01-13 09:15:00,34.8,23.5,30.29,ENE,71,0.0,0.0,63,0.00,SCT,,0.00,WeatherDisplay:10.37,2013-01-13 17:15:00,
2013-01-13 09:19:00,34.9,23.2,30.29,NE,35,0.0,0.0,62,0.00,SCT,,0.00,WeatherDisplay:10.37,2013-01-13 17:19:00,
2013-01-13 09:20:00,34.9,23.2,30.29,NNE,22,0.0,0.0,62,0.00,SCT,,0.00,WeatherDisplay:10.37,2013-01-13 17:20:00,
2013-01-13 09:21:00,35.0,23.3,30.29,NNE,19,0.0,0.0,62,0.00,SCT,,0.00,WeatherDisplay:10.37,2013-01-13 17:21:00,
2013-01-13 09:24:00,35.2,23.5,30.28,North,11,1.0,0.0,62,0.00,SCT,,0.00,WeatherDisplay:10.37,2013-01-13 17:24:00,
2013-01-13 09:25:00,35.2,23.5,30.28,NNE,14,1.1,1.1,62,0.00,SCT,,0.00,WeatherDisplay:10.37,2013-01-13 17:25:00,
2013-01-13 09:26:00,35.2,23.5,30.28,NNE,15,1.1,0.0,62,0.00,SCT,,0.00,WeatherDisplay:10.37,2013-01-13 17:26:00,
2013-01-13 09:29:00,35.3,23.6,30.28,North,1,0.0,0.0,62,0.00,SCT,,0.00,WeatherDisplay:10.37,2013-01-13 17:29:00,
2013-01-13 09:30:00,35.3,23.6,30.28,North,360,0.0,0.0,62,0.00,SCT,,0.00,WeatherDisplay:10.37,2013-01-13 17:30:00,
2013-01-13 09:31:00,35.3,23.6,30.28,North,360,0.0,0.0,62,0.00,SCT,,0.00,WeatherDisplay:10.37,2013-01-13 17:31:00,
2013-01-13 09:35:00,35.5,23.4,30.28,North,358,0.0,0.0,61,0.00,SCT,,0.00,WeatherDisplay:10.37,2013-01-13 17:35:00,
2013-01-13 09:36:00,35.6,23.5,30.28,North,359,0.0,0.0,61,0.00,SCT,,0.00,WeatherDisplay:10.37,2013-01-13 17:36:00,
2013-01-13 09:40:00,35.8,23.3,30.28,North,1,0.0,2.0,60,0.00,SCT,,0.00,WeatherDisplay:10.37,2013-01-13 17:40:00,
2013-01-13 09:41:00,35.8,23.3,30.28,North,10,2.3,2.3,60,0.00,SCT,,0.00,WeatherDisplay:10.37,2013-01-13 17:41:00,
2013-01-13 09:45:00,36.1,23.1,30.27,North,358,2.3,0.0,59,0.00,SCT,,0.00,WeatherDisplay:10.37,2013-01-13 17:45:00,
2013-01-13 09:46:00,36.2,22.8,30.27,North,356,0.0,0.0,58,0.00,SCT,,0.00,WeatherDisplay:10.37,2013-01-13 17:46:00,
2013-01-13 09:50:00,36.4,22.2,30.28,North,11,1.1,1.1,56,0.00,SCT,,0.00,WeatherDisplay:10.37,2013-01-13 17:50:00,
2013-01-13 09:51:00,36.5,22.3,30.27,North,11,3.5,3.5,56,0.00,SCT,,0.00,WeatherDisplay:10.37,2013-01-13 17:51:00,
2013-01-13 09:55:00,36.7,22.0,30.27,NNE,16,1.1,1.1,55,0.00,SCT,,0.00,WeatherDisplay:10.37,2013-01-13 17:55:00,
2013-01-13 09:56:00,36.7,22.0,30.27,North,11,3.5,3.5,55,0.00,SCT,,0.00,WeatherDisplay:10.37,2013-01-13 17:56:00,
2013-01-13 10:00:00,36.9,21.3,30.28,North,8,1.1,0.0,53,0.00,SCT,,0.00,WeatherDisplay:10.37,2013-01-13 18:00:00,
2013-01-13 10:01:00,36.9,21.3,30.27,North,356,2.3,2.3,53,0.00,SCT,,0.00,WeatherDisplay:10.37,2013-01-13 18:01:00,
2013-01-13 10:02:00,36.9,21.8,30.27,North,1,2.3,2.3,54,0.00,SCT,,0.00,WeatherDisplay:10.37,2013-01-13 18:02:00,
2013-01-13 10:06:00,37.1,21.1,30.28,North,11,2.3,2.3,52,0.00,SCT,,0.00,WeatherDisplay:10.37,2013-01-13 18:06:00,
2013-01-13 10:07:00,37.2,20.7,30.28,NNE,16,2.3,2.3,51,0.00,SCT,,0.00,WeatherDisplay:10.37,2013-01-13 18:07:00,
2013-01-13 10:11:00,37.4,21.8,30.27,NNW,343,0.0,0.0,53,0.00,SCT,,0.00,WeatherDisplay:10.37,2013-01-13 18:11:00,
2013-01-13 10:12:00,37.4,21.8,30.27,NNW,348,0.0,0.0,53,0.00,SCT,,0.00,WeatherDisplay:10.37,2013-01-13 18:12:00,
2013-01-13 10:16:00,37.6,21.5,30.27,NNE,13,1.0,0.0,52,0.00,SCT,,0.00,WeatherDisplay:10.37,2013-01-13 18:16:00,
2013-01-13 10:17:00,37.7,21.2,30.27,North,11,1.0,1.2,51,0.00,SCT,,0.00,WeatherDisplay:10.37,2013-01-13 18:17:00,
2013-01-13 10:21:00,38.0,20.5,30.27,NNW,348,0.0,0.0,49,0.00,SCT,,0.00,WeatherDisplay:10.37,2013-01-13 18:21:00,
2013-01-13 10:22:00,38.0,20.5,30.27,North,349,0.0,0.0,49,0.00,SCT,,0.00,WeatherDisplay:10.37,2013-01-13 18:22:00,
2013-01-13 10:26:00,38.2,21.2,30.27,North,9,2.3,2.3,50,0.00,SCT,,0.00,WeatherDisplay:10.37,2013-01-13 18:26:00,
2013-01-13 10:27:00,38.2,20.7,30.27,North,359,2.3,2.3,49,0.00,SCT,,0.00,WeatherDisplay:10.37,2013-01-13 18:27:00,
2013-01-13 10:28:00,38.3,20.3,30.27,North,5,3.0,3.0,48,0.00,SCT,,0.00,WeatherDisplay:10.37,2013-01-13 18:28:00,
2013-01-13 10:31:00,38.5,19.5,30.27,North,360,2.3,2.3,46,0.00,SCT,,0.00,WeatherDisplay:10.37,2013-01-13 18:31:00,
2013-01-13 10:32:00,38.5,20.0,30.26,North,360,2.3,0.0,47,0.00,SCT,,0.00,WeatherDisplay:10.37,2013-01-13 18:32:00,
2013-01-13 10:33:00,38.6,20.1,30.27,North,1,2.3,0.0,47,0.00,SCT,,0.00,WeatherDisplay:10.37,2013-01-13 18:33:00,
2013-01-13 10:36:00,38.8,19.8,30.27,NE,37,2.3,2.3,46,0.00,SCT,,0.00,WeatherDisplay:10.37,2013-01-13 18:36:00,
2013-01-13 10:37:00,38.9,19.9,30.27,North,10,1.0,1.0,46,0.00,SCT,,0.00,WeatherDisplay:10.37,2013-01-13 18:37:00,
2013-01-13 10:38:00,38.9,19.3,30.27,North,6,1.0,1.0,45,0.00,SCT,,0.00,WeatherDisplay:10.37,2013-01-13 18:38:00,
2013-01-13 10:41:00,39.1,19.0,30.27,North,359,3.5,3.5,44,0.00,SCT,,0.00,WeatherDisplay:10.37,2013-01-13 18:41:00,
2013-01-13 10:43:00,39.2,18.5,30.27,North,354,3.5,3.5,43,0.00,SCT,,0.00,WeatherDisplay:10.37,2013-01-13 18:43:00,
2013-01-13 10:47:00,39.3,18.6,30.26,North,9,3.5,3.5,43,0.00,SCT,,0.00,WeatherDisplay:10.37,2013-01-13 18:47:00,
2013-01-13 10:48:00,39.3,19.2,30.26,NNE,14,2.3,2.3,44,0.00,SCT,,0.00,WeatherDisplay:10.37,2013-01-13 18:48:00,
2013-01-13 10:52:00,39.5,19.4,30.26,NNE,12,3.5,3.5,44,0.00,SCT,,0.00,WeatherDisplay:10.37,2013-01-13 18:52:00,
2013-01-13 10:53:00,39.5,19.4,30.26,NNE,16,3.5,3.5,44,0.00,SCT,,0.00,WeatherDisplay:10.37,2013-01-13 18:53:00,
2013-01-13 10:54:00,39.5,19.9,30.26,NNE,17,2.3,2.3,45,0.00,SCT,,0.00,WeatherDisplay:10.37,2013-01-13 18:54:00,
2013-01-13 10:57:00,39.6,18.9,30.26,North,7,2.3,2.3,43,0.00,SCT,,0.00,WeatherDisplay:10.37,2013-01-13 18:57:00,
2013-01-13 10:58:00,39.6,18.9,30.26,North,3,2.3,2.3,43,0.00,SCT,,0.00,WeatherDisplay:10.37,2013-01-13 18:58:00,
2013-01-13 10:59:00,39.7,19.0,30.26,NNE,26,2.3,0.0,43,0.00,SCT,,0.00,WeatherDisplay:10.37,2013-01-13 18:59:00,
2013-01-13 11:02:00,39.9,19.7,30.26,East,83,1.1,1.1,44,0.00,SCT,,0.00,WeatherDisplay:10.37,2013-01-13 19:02:00,
2013-01-13 11:03:00,39.9,19.7,30.26,ENE,75,2.3,2.3,44,0.00,SCT,,0.00,WeatherDisplay:10.37,2013-01-13 19:03:00,
2013-01-13 11:04:00,40.0,18.7,30.26,ENE,75,1.1,0.0,42,0.00,SCT,,0.00,WeatherDisplay:10.37,2013-01-13 19:04:00,
2013-01-13 11:07:00,40.1,18.8,30.26,NE,44,0.0,0.0,42,0.00,SCT,,0.00,WeatherDisplay:10.37,2013-01-13 19:07:00,
2013-01-13 11:08:00,40.1,19.4,30.26,NE,44,0.0,0.0,43,0.00,SCT,,0.00,WeatherDisplay:10.37,2013-01-13 19:08:00,
2013-01-13 11:09:00,40.1,19.4,30.26,NE,44,0.0,0.0,43,0.00,SCT,,0.00,WeatherDisplay:10.37,2013-01-13 19:09:00,
2013-01-13 11:13:00,40.3,18.4,30.26,North,359,0.0,0.0,41,0.00,SCT,,0.00,WeatherDisplay:10.37,2013-01-13 19:13:00,
2013-01-13 11:14:00,40.3,18.4,30.26,NNE,12,3.5,3.5,41,0.00,SCT,,0.00,WeatherDisplay:10.37,2013-01-13 19:14:00,
2013-01-13 11:18:00,40.5,18.6,30.25,NE,37,2.3,2.3,41,0.00,SCT,,0.00,WeatherDisplay:10.37,2013-01-13 19:18:00,
2013-01-13 11:19:00,40.5,19.7,30.25,NE,45,1.1,1.1,43,0.00,SCT,,0.00,WeatherDisplay:10.37,2013-01-13 19:19:00,
2013-01-13 11:20:00,40.6,20.4,30.25,NNE,33,2.3,2.3,44,0.00,SCT,,0.00,WeatherDisplay:10.37,2013-01-13 19:20:00,
2013-01-13 11:23:00,40.8,19.5,30.25,SE,126,1.1,1.1,42,0.00,SCT,,0.00,WeatherDisplay:10.37,2013-01-13 19:23:00,
2013-01-13 11:24:00,40.9,19.0,30.25,SE,126,1.1,0.0,41,0.00,SCT,,0.00,WeatherDisplay:10.37,2013-01-13 19:24:00,
2013-01-13 11:25:00,40.9,19.0,30.25,ESE,107,0.0,0.0,41,0.00,SCT,,0.00,WeatherDisplay:10.37,2013-01-13 19:25:00,
2013-01-13 11:28:00,41.0,16.7,30.25,NE,34,0.0,0.0,37,0.00,SCT,,0.00,WeatherDisplay:10.37,2013-01-13 19:28:00,
2013-01-13 11:29:00,41.0,17.3,30.25,NNE,33,0.0,0.0,38,0.00,SCT,,0.00,WeatherDisplay:10.37,2013-01-13 19:29:00,
2013-01-13 11:30:00,41.1,17.4,30.25,NNE,33,0.0,0.0,38,0.00,SCT,,0.00,WeatherDisplay:10.37,2013-01-13 19:30:00,
2013-01-13 11:33:00,41.2,16.9,30.25,NNE,28,0.0,0.0,37,0.00,SCT,,0.00,WeatherDisplay:10.37,2013-01-13 19:33:00,
2013-01-13 11:34:00,41.1,18.0,30.25,NNE,28,0.0,0.0,39,0.00,SCT,,0.00,WeatherDisplay:10.37,2013-01-13 19:34:00,
2013-01-13 11:35:00,41.2,17.5,30.25,NNE,28,0.0,0.0,38,0.00,SCT,,0.00,WeatherDisplay:10.37,2013-01-13 19:35:00,
2013-01-13 11:38:00,41.3,16.9,30.25,NW,304,0.0,0.0,37,0.00,SCT,,0.00,WeatherDisplay:10.37,2013-01-13 19:38:00,
2013-01-13 11:39:00,41.4,17.0,30.25,WNW,303,0.0,0.0,37,0.00,SCT,,0.00,WeatherDisplay:10.37,2013-01-13 19:39:00,
2013-01-13 11:41:00,41.5,17.1,30.25,NW,304,0.0,0.0,37,0.00,SCT,,0.00,WeatherDisplay:10.37,2013-01-13 19:41:00,
2013-01-13 11:44:00,41.6,17.2,30.25,NW,304,0.0,0.0,37,0.00,SCT,,0.00,WeatherDisplay:10.37,2013-01-13 19:44:00,
2013-01-13 11:45:00,41.6,17.2,30.25,NNW,348,0.0,0.6,37,0.00,SCT,,0.00,WeatherDisplay:10.37,2013-01-13 19:45:00,
2013-01-13 11:46:00,41.7,17.9,30.25,NNE,13,2.3,2.3,38,0.00,SCT,,0.00,WeatherDisplay:10.37,2013-01-13 19:46:00,
2013-01-13 11:49:00,41.8,17.4,30.25,North,354,3.5,0.0,37,0.00,SCT,,0.00,WeatherDisplay:10.37,2013-01-13 19:49:00,
2013-01-13 11:50:00,41.8,17.4,30.25,North,4,0.0,0.0,37,0.00,SCT,,0.00,WeatherDisplay:10.37,2013-01-13 19:50:00,
2013-01-13 11:52:00,41.9,18.1,30.25,NNE,12,0.0,0.1,38,0.00,SCT,,0.00,WeatherDisplay:10.37,2013-01-13 19:52:00,
2013-01-13 11:55:00,42.0,17.6,30.25,North,356,0.0,0.0,37,0.00,SCT,,0.00,WeatherDisplay:10.37,2013-01-13 19:55:00,
2013-01-13 11:57:00,42.1,17.7,30.25,NNE,20,3.5,3.5,37,0.00,SCT,,0.00,WeatherDisplay:10.37,2013-01-13 19:57:00,
2013-01-13 12:00:00,42.1,17.7,30.24,NNE,12,1.0,4.0,37,0.00,SCT,,0.00,WeatherDisplay:10.37,2013-01-13 20:00:00,
2013-01-13 12:03:00,42.3,19.1,30.24,SE,124,3.5,3.5,39,0.00,SCT,,0.00,WeatherDisplay:10.37,2013-01-13 20:03:00,
2013-01-13 12:05:00,42.4,18.5,30.24,ENE,58,0.0,4.0,38,0.00,SCT,,0.00,WeatherDisplay:10.37,2013-01-13 20:05:00,
2013-01-13 12:06:00,42.5,19.3,30.24,ESE,123,0.0,0.0,39,0.00,SCT,,0.00,WeatherDisplay:10.37,2013-01-13 20:06:00,
2013-01-13 12:08:00,42.6,18.7,30.24,North,3,0.0,0.1,38,0.00,SCT,,0.00,WeatherDisplay:10.37,2013-01-13 20:08:00,
2013-01-13 12:10:00,42.7,18.2,30.24,North,353,2.3,2.3,37,0.00,SCT,,0.00,WeatherDisplay:10.37,2013-01-13 20:10:00,
2013-01-13 12:11:00,42.7,17.6,30.23,North,353,2.3,0.0,36,0.00,SCT,,0.00,WeatherDisplay:10.37,2013-01-13 20:11:00,
2013-01-13 12:13:00,42.8,18.9,30.23,North,353,0.0,0.0,38,0.00,SCT,,0.00,WeatherDisplay:10.37,2013-01-13 20:13:00,
2013-01-13 12:15:00,42.9,19.0,30.23,North,353,0.0,0.0,38,0.00,SCT,,0.00,WeatherDisplay:10.37,2013-01-13 20:15:00,
2013-01-13 12:16:00,42.9,19.0,30.23,North,353,0.0,0.0,38,0.00,SCT,,0.00,WeatherDisplay:10.37,2013-01-13 20:16:00,
2013-01-13 12:18:00,43.0,17.8,30.22,North,6,1.1,1.1,36,0.00,SCT,,0.00,WeatherDisplay:10.37,2013-01-13 20:18:00,
2013-01-13 12:20:00,43.1,17.9,30.22,North,7,1.1,0.0,36,0.00,SCT,,0.00,WeatherDisplay:10.37,2013-01-13 20:20:00,
2013-01-13 12:21:00,43.1,17.3,30.23,NW,311,2.0,2.0,35,0.00,SCT,,0.00,WeatherDisplay:10.37,2013-01-13 20:21:00,
2013-01-13 12:23:00,43.2,15.3,30.23,West,267,3.5,3.5,32,0.00,SCT,,0.00,WeatherDisplay:10.37,2013-01-13 20:23:00,
2013-01-13 12:25:00,43.3,13.9,30.23,WNW,299,3.5,3.5,30,0.00,SCT,,0.00,WeatherDisplay:10.37,2013-01-13 20:25:00,
2013-01-13 12:26:00,43.4,12.4,30.22,WSW,257,3.5,3.5,28,0.00,SCT,,0.00,WeatherDisplay:10.37,2013-01-13 20:26:00,
2013-01-13 12:28:00,43.5,14.1,30.22,West,263,4.6,4.6,30,0.00,SCT,,0.00,WeatherDisplay:10.37,2013-01-13 20:28:00,
2013-01-13 12:30:00,43.6,15.6,30.22,WNW,294,4.6,4.6,32,0.00,SCT,,0.00,WeatherDisplay:10.37,2013-01-13 20:30:00,
2013-01-13 12:31:00,43.7,15.0,30.22,West,281,3.5,3.5,31,0.00,SCT,,0.00,WeatherDisplay:10.37,2013-01-13 20:31:00,
2013-01-13 12:33:00,43.8,15.8,30.22,West,264,5.8,5.8,32,0.00,SCT,,0.00,WeatherDisplay:10.37,2013-01-13 20:33:00,
2013-01-13 12:35:00,43.9,12.8,30.22,West,271,4.6,4.6,28,0.00,SCT,,0.00,WeatherDisplay:10.37,2013-01-13 20:35:00,
2013-01-13 12:36:00,43.9,12.8,30.22,West,280,6.9,6.9,28,0.00,SCT,,0.00,WeatherDisplay:10.37,2013-01-13 20:36:00,
2013-01-13 12:38:00,44.0,12.1,30.22,West,260,4.6,4.6,27,0.00,SCT,,0.00,WeatherDisplay:10.37,2013-01-13 20:38:00,
2013-01-13 12:40:00,44.1,12.2,30.22,West,277,2.3,2.3,27,0.00,SCT,,0.00,WeatherDisplay:10.37,2013-01-13 20:40:00,
2013-01-13 12:41:00,44.1,13.8,30.22,WSW,258,0.0,0.0,29,0.00,SCT,,0.00,WeatherDisplay:10.37,2013-01-13 20:41:00,
2013-01-13 12:43:00,44.2,12.3,30.22,WNW,301,2.3,2.3,27,0.00,SCT,,0.00,WeatherDisplay:10.37,2013-01-13 20:43:00,
2013-01-13 12:45:00,44.3,13.2,30.22,West,267,3.5,3.5,28,0.00,SCT,,0.00,WeatherDisplay:10.37,2013-01-13 20:45:00,
2013-01-13 12:46:00,44.3,12.4,30.22,West,262,2.3,2.3,27,0.00,SCT,,0.00,WeatherDisplay:10.37,2013-01-13 20:46:00,
2013-01-13 12:47:00,44.3,12.4,30.22,WSW,257,2.3,2.3,27,0.00,SCT,,0.00,WeatherDisplay:10.37,2013-01-13 20:47:00,
2013-01-13 12:49:00,44.4,14.1,30.22,WSW,254,5.8,5.8,29,0.00,SCT,,0.00,WeatherDisplay:10.37,2013-01-13 20:49:00,
2013-01-13 12:50:00,44.4,14.1,30.22,West,262,3.5,3.5,29,0.00,SCT,,0.00,WeatherDisplay:10.37,2013-01-13 20:50:00,
2013-01-13 12:51:00,44.4,12.5,30.22,NW,304,3.5,3.5,27,0.00,SCT,,0.00,WeatherDisplay:10.37,2013-01-13 20:51:00,
2013-01-13 12:52:00,44.5,12.5,30.22,WNW,302,5.8,5.8,27,0.00,SCT,,0.00,WeatherDisplay:10.37,2013-01-13 20:52:00,
2013-01-13 12:54:00,44.5,12.5,30.22,West,266,3.0,3.0,27,0.00,SCT,,0.00,WeatherDisplay:10.37,2013-01-13 20:54:00,
2013-01-13 12:55:00,44.5,13.4,30.22,West,269,3.5,3.5,28,0.00,SCT,,0.00,WeatherDisplay:10.37,2013-01-13 20:55:00,
2013-01-13 12:57:00,44.6,13.5,30.22,West,270,3.5,3.5,28,0.00,SCT,,0.00,WeatherDisplay:10.37,2013-01-13 20:57:00,
2013-01-13 12:59:00,44.6,14.3,30.22,West,263,5.8,5.8,29,0.00,SCT,,0.00,WeatherDisplay:10.37,2013-01-13 20:59:00,
2013-01-13 13:00:00,44.6,13.5,30.22,West,271,3.5,3.5,28,0.00,SCT,,0.00,WeatherDisplay:10.37,2013-01-13 21:00:00,
2013-01-13 13:02:00,44.6,14.3,30.22,West,274,4.6,4.6,29,0.00,SCT,,0.00,WeatherDisplay:10.37,2013-01-13 21:02:00,
2013-01-13 13:04:00,44.7,14.3,30.22,West,265,3.5,3.5,29,0.00,SCT,,0.00,WeatherDisplay:10.37,2013-01-13 21:04:00,
2013-01-13 13:06:00,44.6,10.9,30.22,West,278,3.5,3.5,25,0.00,SCT,,0.00,WeatherDisplay:10.37,2013-01-13 21:06:00,
2013-01-13 13:07:00,44.7,14.3,30.22,West,260,2.3,2.3,29,0.00,SCT,,0.00,WeatherDisplay:10.37,2013-01-13 21:07:00,
2013-01-13 13:09:00,44.7,13.5,30.21,WSW,251,1.1,1.1,28,0.00,SCT,,0.00,WeatherDisplay:10.37,2013-01-13 21:09:00,
2013-01-13 13:11:00,44.7,12.7,30.21,WNW,292,3.0,3.0,27,0.00,SCT,,0.00,WeatherDisplay:10.37,2013-01-13 21:11:00,
2013-01-13 13:12:00,44.6,12.6,30.21,WNW,296,3.5,3.5,27,0.00,SCT,,0.00,WeatherDisplay:10.37,2013-01-13 21:12:00,
2013-01-13 13:13:00,44.7,12.7,30.21,WNW,290,3.5,3.5,27,0.00,SCT,,0.00,WeatherDisplay:10.37,2013-01-13 21:13:00,
2013-01-13 13:14:00,44.7,12.7,30.21,West,272,2.3,2.3,27,0.00,SCT,,0.00,WeatherDisplay:10.37,2013-01-13 21:14:00,
2013-01-13 13:16:00,44.7,12.7,30.21,West,273,3.5,3.5,27,0.00,SCT,,0.00,WeatherDisplay:10.37,2013-01-13 21:16:00,
2013-01-13 13:18:00,44.8,12.8,30.21,WNW,298,2.3,2.3,27,0.00,SCT,,0.00,WeatherDisplay:10.37,2013-01-13 21:18:00,
2013-01-13 13:19:00,44.8,11.9,30.21,WNW,287,3.5,3.5,26,0.00,SCT,,0.00,WeatherDisplay:10.37,2013-01-13 21:19:00,
2013-01-13 13:21:00,44.8,11.9,30.21,West,275,3.5,3.5,26,0.00,SCT,,0.00,WeatherDisplay:10.37,2013-01-13 21:21:00,
2013-01-13 13:23:00,44.8,12.8,30.21,WNW,292,2.3,2.3,27,0.00,SCT,,0.00,WeatherDisplay:10.37,2013-01-13 21:23:00,
2013-01-13 13:24:00,44.9,12.9,30.21,NW,308,2.3,2.3,27,0.00,SCT,,0.00,WeatherDisplay:10.37,2013-01-13 21:24:00,
2013-01-13 13:26:00,44.9,12.9,30.21,NW,310,0.0,0.1,27,0.00,SCT,,0.00,WeatherDisplay:10.37,2013-01-13 21:26:00,
2013-01-13 13:28:00,45.0,13.0,30.21,West,277,2.3,2.3,27,0.00,SCT,,0.00,WeatherDisplay:10.37,2013-01-13 21:28:00,
2013-01-13 13:30:00,45.1,13.1,30.21,West,271,3.5,3.5,27,0.00,SCT,,0.00,WeatherDisplay:10.37,2013-01-13 21:30:00,
2013-01-13 13:32:00,45.2,13.1,30.21,SSW,200,1.1,0.0,27,0.00,SCT,,0.00,WeatherDisplay:10.37,2013-01-13 21:32:00,
2013-01-13 13:33:00,45.3,14.1,30.21,West,266,1.1,1.1,28,0.00,SCT,,0.00,WeatherDisplay:10.37,2013-01-13 21:33:00,
2013-01-13 13:35:00,45.3,14.1,30.20,West,260,3.5,3.5,28,0.00,SCT,,0.00,WeatherDisplay:10.37,2013-01-13 21:35:00,
2013-01-13 13:37:00,45.3,13.2,30.21,West,268,3.5,3.5,27,0.00,SCT,,0.00,WeatherDisplay:10.37,2013-01-13 21:37:00,
2013-01-13 13:38:00,45.2,13.1,30.21,WNW,293,5.0,5.0,27,0.00,SCT,,0.00,WeatherDisplay:10.37,2013-01-13 21:38:00,
2013-01-13 13:40:00,45.2,13.1,30.20,West,265,4.6,4.6,27,0.00,SCT,,0.00,WeatherDisplay:10.37,2013-01-13 21:40:00,
2013-01-13 13:42:00,45.3,14.1,30.21,West,272,1.1,1.1,28,0.00,SCT,,0.00,WeatherDisplay:10.37,2013-01-13 21:42:00,
2013-01-13 13:43:00,45.3,13.2,30.20,WNW,286,2.3,2.3,27,0.00,SCT,,0.00,WeatherDisplay:10.37,2013-01-13 21:43:00,
2013-01-13 13:44:00,45.3,13.2,30.20,WNW,292,2.3,2.3,27,0.00,SCT,,0.00,WeatherDisplay:10.37,2013-01-13 21:44:00,
2013-01-13 13:45:00,45.3,12.4,30.20,WNW,300,5.0,5.0,26,0.00,SCT,,0.00,WeatherDisplay:10.37,2013-01-13 21:45:00,
2013-01-13 13:47:00,45.3,11.5,30.20,WNW,299,3.5,3.5,25,0.00,SCT,,0.00,WeatherDisplay:10.37,2013-01-13 21:47:00,
2013-01-13 13:48:00,45.3,13.2,30.20,WNW,299,2.3,0.0,27,0.00,SCT,,0.00,WeatherDisplay:10.37,2013-01-13 21:48:00,
2013-01-13 13:49:00,45.3,13.2,30.21,West,273,2.0,2.0,27,0.00,SCT,,0.00,WeatherDisplay:10.37,2013-01-13 21:49:00,
2013-01-13 13:51:00,45.2,12.3,30.20,WNW,301,3.5,3.5,26,0.00,SCT,,0.00,WeatherDisplay:10.37,2013-01-13 21:51:00,
2013-01-13 13:53:00,45.3,13.2,30.20,West,274,4.0,4.0,27,0.00,SCT,,0.00,WeatherDisplay:10.37,2013-01-13 21:53:00,
2013-01-13 13:54:00,45.3,13.2,30.20,West,268,3.5,3.5,27,0.00,SCT,,0.00,WeatherDisplay:10.37,2013-01-13 21:54:00,
2013-01-13 13:56:00,45.3,13.2,30.21,WNW,301,2.3,2.3,27,0.00,SCT,,0.00,WeatherDisplay:10.37,2013-01-13 21:56:00,
2013-01-13 13:58:00,45.4,13.3,30.21,West,271,5.8,5.8,27,0.00,SCT,,0.00,WeatherDisplay:10.37,2013-01-13 21:58:00,
2013-01-13 13:59:00,45.4,13.3,30.21,WNW,287,3.5,3.5,27,0.00,SCT,,0.00,WeatherDisplay:10.37,2013-01-13 21:59:00,
2013-01-13 14:01:00,45.5,11.7,30.20,WSW,256,1.1,1.1,25,0.00,SCT,,0.00,WeatherDisplay:10.37,2013-01-13 22:01:00,
2013-01-13 14:03:00,45.5,13.4,30.20,West,272,1.1,1.1,27,0.00,SCT,,0.00,WeatherDisplay:10.37,2013-01-13 22:03:00,
2013-01-13 14:04:00,45.6,13.5,30.21,West,264,1.1,1.1,27,0.00,SCT,,0.00,WeatherDisplay:10.37,2013-01-13 22:04:00,
2013-01-13 14:07:00,45.7,13.6,30.21,West,263,0.0,0.0,27,0.00,SCT,,0.00,WeatherDisplay:10.37,2013-01-13 22:07:00,
2013-01-13 14:08:00,45.7,13.6,30.21,West,263,1.0,0.0,27,0.00,SCT,,0.00,WeatherDisplay:10.37,2013-01-13 22:08:00,
2013-01-13 14:09:00,45.7,13.6,30.21,WSW,254,1.1,1.1,27,0.00,SCT,,0.00,WeatherDisplay:10.37,2013-01-13 22:09:00,
2013-01-13 14:12:00,45.7,13.6,30.21,WSW,258,0.0,0.0,27,0.00,SCT,,0.00,WeatherDisplay:10.37,2013-01-13 22:12:00,
2013-01-13 14:13:00,45.8,13.7,30.20,WSW,258,1.0,0.0,27,0.00,SCT,,0.00,WeatherDisplay:10.37,2013-01-13 22:13:00,
2013-01-13 14:14:00,45.8,12.8,30.20,WSW,258,1.1,0.0,26,0.00,SCT,,0.00,WeatherDisplay:10.37,2013-01-13 22:14:00,
2013-01-13 14:15:00,45.8,13.7,30.20,WSW,258,0.0,0.0,27,0.00,SCT,,0.00,WeatherDisplay:10.37,2013-01-13 22:15:00,
2013-01-13 14:17:00,45.9,14.6,30.20,SW,234,0.0,0.1,28,0.00,SCT,,0.00,WeatherDisplay:10.37,2013-01-13 22:17:00,
2013-01-13 14:18:00,45.9,13.7,30.20,WNW,294,1.1,1.1,27,0.00,SCT,,0.00,WeatherDisplay:10.37,2013-01-13 22:18:00,
2013-01-13 14:19:00,45.9,13.7,30.20,WNW,294,1.1,0.0,27,0.00,SCT,,0.00,WeatherDisplay:10.37,2013-01-13 22:19:00,
2013-01-13 14:20:00,45.9,13.7,30.20,WNW,294,0.0,0.0,27,0.00,SCT,,0.00,WeatherDisplay:10.37,2013-01-13 22:20:00,
2013-01-13 14:22:00,45.8,13.7,30.20,NW,316,1.1,1.1,27,0.00,SCT,,0.00,WeatherDisplay:10.37,2013-01-13 22:22:00,
2013-01-13 14:24:00,45.9,13.7,30.20,NW,317,1.1,0.0,27,0.00,SCT,,0.00,WeatherDisplay:10.37,2013-01-13 22:24:00,
2013-01-13 14:25:00,45.9,13.7,30.20,West,259,0.0,0.0,27,0.00,SCT,,0.00,WeatherDisplay:10.37,2013-01-13 22:25:00,
2013-01-13 14:27:00,46.0,13.8,30.20,SW,229,0.0,0.2,27,0.00,SCT,,0.00,WeatherDisplay:10.37,2013-01-13 22:27:00,
2013-01-13 14:29:00,45.9,13.7,30.20,WNW,302,3.5,3.5,27,0.00,SCT,,0.00,WeatherDisplay:10.37,2013-01-13 22:29:00,
2013-01-13 14:30:00,45.9,13.7,30.20,West,268,3.5,3.5,27,0.00,SCT,,0.00,WeatherDisplay:10.37,2013-01-13 22:30:00,
2013-01-13 14:32:00,45.9,13.7,30.20,WNW,287,3.5,3.5,27,0.00,SCT,,0.00,WeatherDisplay:10.37,2013-01-13 22:32:00,
2013-01-13 14:34:00,45.9,13.7,30.20,West,259,2.0,2.0,27,0.00,SCT,,0.00,WeatherDisplay:10.37,2013-01-13 22:34:00,
2013-01-13 14:35:00,45.9,13.7,30.20,West,276,1.1,1.1,27,0.00,SCT,,0.00,WeatherDisplay:10.37,2013-01-13 22:35:00,
2013-01-13 14:38:00,46.0,13.8,30.20,WSW,258,3.5,3.5,27,0.00,SCT,,0.00,WeatherDisplay:10.37,2013-01-13 22:38:00,
2013-01-13 14:40:00,46.0,13.8,30.20,WSW,255,2.3,2.3,27,0.00,SCT,,0.00,WeatherDisplay:10.37,2013-01-13 22:40:00,
2013-01-13 14:41:00,46.0,14.7,30.20,SSW,212,2.3,2.3,28,0.00,SCT,,0.00,WeatherDisplay:10.37,2013-01-13 22:41:00,
2013-01-13 14:43:00,46.1,13.9,30.20,SW,218,0.0,0.0,27,0.00,SCT,,0.00,WeatherDisplay:10.37,2013-01-13 22:43:00,
2013-01-13 14:45:00,46.1,13.9,30.20,SW,221,1.1,0.0,27,0.00,SCT,,0.00,WeatherDisplay:10.37,2013-01-13 22:45:00,
2013-01-13 14:46:00,46.1,14.8,30.20,West,263,2.0,2.0,28,0.00,SCT,,0.00,WeatherDisplay:10.37,2013-01-13 22:46:00,
2013-01-13 14:48:00,46.1,13.9,30.20,West,262,1.1,0.0,27,0.00,SCT,,0.00,WeatherDisplay:10.37,2013-01-13 22:48:00,
2013-01-13 14:50:00,46.1,14.8,30.20,WSW,252,3.5,3.5,28,0.00,SCT,,0.00,WeatherDisplay:10.37,2013-01-13 22:50:00,
2013-01-13 14:51:00,46.1,14.8,30.20,SW,223,1.1,1.1,28,0.00,SCT,,0.00,WeatherDisplay:10.37,2013-01-13 22:51:00,
2013-01-13 14:53:00,46.2,14.0,30.20,West,268,2.3,2.3,27,0.00,SCT,,0.00,WeatherDisplay:10.37,2013-01-13 22:53:00,
2013-01-13 14:55:00,46.2,14.0,30.20,WNW,293,4.6,4.6,27,0.00,SCT,,0.00,WeatherDisplay:10.37,2013-01-13 22:55:00,
2013-01-13 14:56:00,46.2,13.1,30.20,WNW,299,4.6,4.6,26,0.00,SCT,,0.00,WeatherDisplay:10.37,2013-01-13 22:56:00,
2013-01-13 14:58:00,46.3,14.1,30.20,West,270,3.5,3.5,27,0.00,SCT,,0.00,WeatherDisplay:10.37,2013-01-13 22:58:00,
2013-01-13 15:00:00,46.2,14.0,30.20,NW,306,3.5,3.5,27,0.00,SCT,,0.00,WeatherDisplay:10.37,2013-01-13 23:00:00,
2013-01-13 15:01:00,46.2,13.1,30.20,NW,306,3.5,3.5,26,0.00,SCT,,0.00,WeatherDisplay:10.37,2013-01-13 23:01:00,
2013-01-13 15:03:00,46.2,14.0,30.20,West,265,5.8,5.8,27,0.00,SCT,,0.00,WeatherDisplay:10.37,2013-01-13 23:03:00,
2013-01-13 15:05:00,46.2,13.1,30.20,West,267,2.3,2.3,26,0.00,SCT,,0.00,WeatherDisplay:10.37,2013-01-13 23:05:00,
2013-01-13 15:06:00,46.2,14.0,30.20,West,264,2.3,2.3,27,0.00,SCT,,0.00,WeatherDisplay:10.37,2013-01-13 23:06:00,
2013-01-13 15:08:00,46.3,14.1,30.20,West,270,3.5,3.5,27,0.00,SCT,,0.00,WeatherDisplay:10.37,2013-01-13 23:08:00,
2013-01-13 15:11:00,46.3,14.1,30.19,West,271,8.1,8.1,27,0.00,SCT,,0.00,WeatherDisplay:10.37,2013-01-13 23:11:00,
2013-01-13 15:13:00,46.2,13.1,30.20,WSW,257,4.6,4.6,26,0.00,SCT,,0.00,WeatherDisplay:10.37,2013-01-13 23:13:00,
2013-01-13 15:16:00,46.2,14.0,30.19,West,262,3.5,3.5,27,0.00,SCT,,0.00,WeatherDisplay:10.37,2013-01-13 23:16:00,
2013-01-13 15:19:00,46.2,14.8,30.19,WSW,255,3.5,3.5,28,0.00,SCT,,0.00,WeatherDisplay:10.37,2013-01-13 23:19:00,
2013-01-13 15:21:00,46.2,14.8,30.19,WSW,258,1.0,1.0,28,0.00,SCT,,0.00,WeatherDisplay:10.37,2013-01-13 23:21:00,
2013-01-13 15:24:00,46.2,14.0,30.20,NW,308,2.3,2.3,27,0.00,SCT,,0.00,WeatherDisplay:10.37,2013-01-13 23:24:00,
2013-01-13 15:26:00,46.2,14.0,30.20,West,271,4.6,4.6,27,0.00,SCT,,0.00,WeatherDisplay:10.37,2013-01-13 23:26:00,
2013-01-13 15:27:00,46.2,14.0,30.19,West,274,4.6,4.6,27,0.00,SCT,,0.00,WeatherDisplay:10.37,2013-01-13 23:27:00,
2013-01-13 15:29:00,46.2,14.0,30.19,West,268,3.5,3.5,27,0.00,SCT,,0.00,WeatherDisplay:10.37,2013-01-13 23:29:00,
2013-01-13 15:31:00,46.1,13.9,30.20,West,273,3.5,3.5,27,0.00,SCT,,0.00,WeatherDisplay:10.37,2013-01-13 23:31:00,
2013-01-13 15:32:00,46.1,13.9,30.20,West,276,3.5,3.5,27,0.00,SCT,,0.00,WeatherDisplay:10.37,2013-01-13 23:32:00,
2013-01-13 15:34:00,46.1,13.9,30.20,West,273,4.6,4.6,27,0.00,SCT,,0.00,WeatherDisplay:10.37,2013-01-13 23:34:00,
2013-01-13 15:37:00,46.1,13.9,30.20,NNW,330,3.5,3.5,27,0.00,SCT,,0.00,WeatherDisplay:10.37,2013-01-13 23:37:00,
2013-01-13 15:40:00,46.1,13.9,30.20,WNW,298,5.0,5.0,27,0.00,SCT,,0.00,WeatherDisplay:10.37,2013-01-13 23:40:00,
2013-01-13 15:42:00,46.0,13.8,30.20,West,272,4.6,4.6,27,0.00,SCT,,0.00,WeatherDisplay:10.37,2013-01-13 23:42:00,
2013-01-13 15:45:00,46.0,15.5,30.20,West,270,2.3,2.3,29,0.00,SCT,,0.00,WeatherDisplay:10.37,2013-01-13 23:45:00,
2013-01-13 15:47:00,46.0,13.8,30.19,NW,304,2.3,2.3,27,0.00,SCT,,0.00,WeatherDisplay:10.37,2013-01-13 23:47:00,
2013-01-13 15:50:00,45.9,13.7,30.20,West,266,3.5,3.5,27,0.00,SCT,,0.00,WeatherDisplay:10.37,2013-01-13 23:50:00,
2013-01-13 15:52:00,45.9,14.6,30.20,West,268,1.1,1.1,28,0.00,SCT,,0.00,WeatherDisplay:10.37,2013-01-13 23:52:00,
2013-01-13 15:55:00,45.9,13.7,30.20,WNW,296,0.0,0.2,27,0.00,SCT,,0.00,WeatherDisplay:10.37,2013-01-13 23:55:00,
2013-01-13 15:57:00,45.8,14.5,30.20,WNW,292,2.3,2.3,28,0.00,SCT,,0.00,WeatherDisplay:10.37,2013-01-13 23:57:00,
2013-01-13 16:00:00,45.8,15.3,30.20,WSW,258,0.0,0.0,29,0.00,SCT,,0.00,WeatherDisplay:10.37,2013-01-14 00:00:00,
2013-01-13 16:02:00,45.7,15.2,30.19,West,259,1.1,1.1,29,0.00,SCT,,0.00,WeatherDisplay:10.37,2013-01-14 00:02:00,
2013-01-13 16:03:00,45.8,15.3,30.20,West,259,1.1,1.1,29,0.00,SCT,,0.00,WeatherDisplay:10.37,2013-01-14 00:03:00,
2013-01-13 16:05:00,45.7,15.2,30.20,West,264,2.3,2.3,29,0.00,SCT,,0.00,WeatherDisplay:10.37,2013-01-14 00:05:00,
2013-01-13 16:08:00,45.7,16.0,30.20,West,264,0.0,0.0,30,0.00,SCT,,0.00,WeatherDisplay:10.37,2013-01-14 00:08:00,
2013-01-13 16:10:00,45.6,15.1,30.20,West,268,3.5,3.5,29,0.00,SCT,,0.00,WeatherDisplay:10.37,2013-01-14 00:10:00,
2013-01-13 16:13:00,45.5,15.8,30.20,West,273,2.0,2.0,30,0.00,SCT,,0.00,WeatherDisplay:10.37,2013-01-14 00:13:00,
2013-01-13 16:15:00,45.4,14.9,30.19,WNW,291,2.3,2.3,29,0.00,SCT,,0.00,WeatherDisplay:10.37,2013-01-14 00:15:00,
2013-01-13 16:18:00,45.4,16.5,30.19,West,264,2.3,0.0,31,0.00,SCT,,0.00,WeatherDisplay:10.37,2013-01-14 00:18:00,
2013-01-13 16:19:00,45.4,16.5,30.19,West,264,0.0,0.0,31,0.00,SCT,,0.00,WeatherDisplay:10.37,2013-01-14 00:19:00,
2013-01-13 16:20:00,45.3,15.6,30.19,West,267,1.1,0.0,30,0.00,SCT,,0.00,WeatherDisplay:10.37,2013-01-14 00:20:00,
2013-01-13 16:23:00,45.3,16.4,30.19,West,266,1.1,1.1,31,0.00,SCT,,0.00,WeatherDisplay:10.37,2013-01-14 00:23:00,
2013-01-13 16:24:00,45.2,17.0,30.20,West,261,3.5,3.5,32,0.00,SCT,,0.00,WeatherDisplay:10.37,2013-01-14 00:24:00,
2013-01-13 16:26:00,45.2,15.6,30.20,West,261,0.0,0.0,30,0.00,SCT,,0.00,WeatherDisplay:10.37,2013-01-14 00:26:00,
2013-01-13 16:28:00,45.1,16.2,30.20,West,261,0.0,0.0,31,0.00,SCT,,0.00,WeatherDisplay:10.37,2013-01-14 00:28:00,
2013-01-13 16:29:00,45.1,16.2,30.20,West,261,0.0,0.0,31,0.00,SCT,,0.00,WeatherDisplay:10.37,2013-01-14 00:29:00,
2013-01-13 16:31:00,45.0,16.9,30.19,West,261,0.0,0.0,32,0.00,SCT,,0.00,WeatherDisplay:10.37,2013-01-14 00:31:00,
2013-01-13 16:33:00,45.0,17.6,30.20,West,261,0.0,0.0,33,0.00,SCT,,0.00,WeatherDisplay:10.37,2013-01-14 00:33:00,
2013-01-13 16:34:00,44.9,17.5,30.20,West,261,0.0,0.0,33,0.00,SCT,,0.00,WeatherDisplay:10.37,2013-01-14 00:34:00,
2013-01-13 16:36:00,44.8,16.0,30.20,West,262,1.1,0.0,31,0.00,SCT,,0.00,WeatherDisplay:10.37,2013-01-14 00:36:00,
2013-01-13 16:38:00,44.7,16.6,30.20,West,262,1.1,1.1,32,0.00,SCT,,0.00,WeatherDisplay:10.37,2013-01-14 00:38:00,
2013-01-13 16:39:00,44.7,16.6,30.20,West,262,0.0,0.0,32,0.00,SCT,,0.00,WeatherDisplay:10.37,2013-01-14 00:39:00,
2013-01-13 16:41:00,44.7,17.3,30.20,West,263,0.0,0.1,33,0.00,SCT,,0.00,WeatherDisplay:10.37,2013-01-14 00:41:00,
2013-01-13 16:43:00,44.6,17.2,30.20,West,262,1.1,0.0,33,0.00,SCT,,0.00,WeatherDisplay:10.37,2013-01-14 00:43:00,
2013-01-13 16:44:00,44.6,17.2,30.20,West,262,0.0,0.0,33,0.00,SCT,,0.00,WeatherDisplay:10.37,2013-01-14 00:44:00,
2013-01-13 16:46:00,44.5,17.1,30.20,West,262,0.0,0.0,33,0.00,SCT,,0.00,WeatherDisplay:10.37,2013-01-14 00:46:00,
2013-01-13 16:48:00,44.4,17.1,30.20,West,262,0.0,0.0,33,0.00,SCT,,0.00,WeatherDisplay:10.37,2013-01-14 00:48:00,
2013-01-13 16:49:00,44.4,17.1,30.20,West,262,0.0,0.0,33,0.00,SCT,,0.00,WeatherDisplay:10.37,2013-01-14 00:49:00,
2013-01-13 16:52:00,44.3,17.7,30.20,West,262,0.0,0.0,34,0.00,SCT,,0.00,WeatherDisplay:10.37,2013-01-14 00:52:00,
2013-01-13 16:53:00,44.2,18.2,30.20,West,262,0.0,0.0,35,0.00,SCT,,0.00,WeatherDisplay:10.37,2013-01-14 00:53:00,
2013-01-13 16:54:00,44.2,17.6,30.20,West,262,0.0,0.0,34,0.00,SCT,,0.00,WeatherDisplay:10.37,2013-01-14 00:54:00,
2013-01-13 16:57:00,44.0,18.7,30.20,West,262,0.0,0.0,36,0.00,SCT,,0.00,WeatherDisplay:10.37,2013-01-14 00:57:00,
2013-01-13 16:58:00,44.0,18.7,30.19,West,262,0.0,0.0,36,0.00,SCT,,0.00,WeatherDisplay:10.37,2013-01-14 00:58:00,
2013-01-13 16:59:00,43.9,18.6,30.19,West,262,0.0,0.0,36,0.00,SCT,,0.00,WeatherDisplay:10.37,2013-01-14 00:59:00,
2013-01-13 17:02:00,43.7,19.7,30.19,West,262,0.0,0.0,38,0.00,SCT,,0.00,WeatherDisplay:10.37,2013-01-14 01:02:00,
2013-01-13 17:03:00,43.6,19.6,30.19,West,262,0.0,0.0,38,0.00,SCT,,0.00,WeatherDisplay:10.37,2013-01-14 01:03:00,
2013-01-13 17:05:00,43.6,20.2,30.19,West,262,0.0,0.0,39,0.00,SCT,,0.00,WeatherDisplay:10.37,2013-01-14 01:05:00,
2013-01-13 17:07:00,43.4,20.1,30.19,South,180,0.0,0.0,39,0.00,SCT,,0.00,WeatherDisplay:10.37,2013-01-14 01:07:00,
2013-01-13 17:08:00,43.3,20.6,30.20,South,180,0.0,0.0,40,0.00,SCT,,0.00,WeatherDisplay:10.37,2013-01-14 01:08:00,
2013-01-13 17:09:00,43.3,20.6,30.20,South,180,0.0,0.0,40,0.00,SCT,,0.00,WeatherDisplay:10.37,2013-01-14 01:09:00,
2013-01-13 17:10:00,43.2,20.5,30.20,South,180,0.0,0.0,40,0.00,SCT,,0.00,WeatherDisplay:10.37,2013-01-14 01:10:00,
2013-01-13 17:12:00,43.1,21.0,30.20,South,180,0.0,0.0,41,0.00,SCT,,0.00,WeatherDisplay:10.37,2013-01-14 01:12:00,
2013-01-13 17:13:00,43.0,20.9,30.20,South,180,0.0,0.0,41,0.00,SCT,,0.00,WeatherDisplay:10.37,2013-01-14 01:13:00,
2013-01-13 17:14:00,43.0,20.9,30.20,South,180,0.0,0.0,41,0.00,SCT,,0.00,WeatherDisplay:10.37,2013-01-14 01:14:00,
2013-01-13 17:15:00,42.9,20.8,30.20,South,180,0.0,0.0,41,0.00,SCT,,0.00,WeatherDisplay:10.37,2013-01-14 01:15:00,
2013-01-13 17:18:00,42.8,21.8,30.20,South,180,0.0,0.0,43,0.00,SCT,,0.00,WeatherDisplay:10.37,2013-01-14 01:18:00,
2013-01-13 17:19:00,42.7,21.7,30.20,South,180,0.0,0.0,43,0.00,SCT,,0.00,WeatherDisplay:10.37,2013-01-14 01:19:00,
2013-01-13 17:20:00,42.7,21.7,30.20,South,180,0.0,0.1,43,0.00,SCT,,0.00,WeatherDisplay:10.37,2013-01-14 01:20:00,
2013-01-13 17:23:00,42.5,21.5,30.20,South,180,1.1,1.1,43,0.00,SCT,,0.00,WeatherDisplay:10.37,2013-01-14 01:23:00,
2013-01-13 17:24:00,42.4,21.5,30.20,South,180,1.1,0.0,43,0.00,SCT,,0.00,WeatherDisplay:10.37,2013-01-14 01:24:00,
2013-01-13 17:26:00,42.3,21.9,30.20,South,180,0.0,0.0,44,0.00,SCT,,0.00,WeatherDisplay:10.37,2013-01-14 01:26:00,
2013-01-13 17:28:00,42.2,21.8,30.20,South,180,0.0,0.0,44,0.00,SCT,,0.00,WeatherDisplay:10.37,2013-01-14 01:28:00,
2013-01-13 17:29:00,42.2,21.8,30.20,South,180,0.0,0.0,44,0.00,SCT,,0.00,WeatherDisplay:10.37,2013-01-14 01:29:00,
2013-01-13 17:30:00,42.1,21.7,30.20,South,180,0.0,0.0,44,0.00,SCT,,0.00,WeatherDisplay:10.37,2013-01-14 01:30:00,
2013-01-13 17:31:00,42.1,21.7,30.20,South,180,0.0,0.0,44,0.00,SCT,,0.00,WeatherDisplay:10.37,2013-01-14 01:31:00,
2013-01-13 17:33:00,42.0,21.6,30.20,South,180,0.0,0.0,44,0.00,SCT,,0.00,WeatherDisplay:10.37,2013-01-14 01:33:00,
2013-01-13 17:34:00,41.9,21.5,30.20,South,180,0.0,0.0,44,0.00,SCT,,0.00,WeatherDisplay:10.37,2013-01-14 01:34:00,
2013-01-13 17:36:00,41.9,22.1,30.20,South,180,0.0,0.0,45,0.00,SCT,,0.00,WeatherDisplay:10.37,2013-01-14 01:36:00,
2013-01-13 17:38:00,41.8,22.0,30.20,South,180,0.0,0.0,45,0.00,SCT,,0.00,WeatherDisplay:10.37,2013-01-14 01:38:00,
2013-01-13 17:39:00,41.7,21.9,30.20,South,180,0.0,0.0,45,0.00,SCT,,0.00,WeatherDisplay:10.37,2013-01-14 01:39:00,
2013-01-13 17:41:00,41.7,21.9,30.20,South,180,0.0,0.0,45,0.00,SCT,,0.00,WeatherDisplay:10.37,2013-01-14 01:41:00,
2013-01-13 17:44:00,41.5,21.7,30.20,South,180,0.0,0.0,45,0.00,SCT,,0.00,WeatherDisplay:10.37,2013-01-14 01:44:00,
2013-01-13 17:46:00,41.4,21.6,30.21,South,180,0.0,0.0,45,0.00,SCT,,0.00,WeatherDisplay:10.37,2013-01-14 01:46:00,
2013-01-13 17:49:00,41.3,21.5,30.20,South,180,0.0,0.0,45,0.00,SCT,,0.00,WeatherDisplay:10.37,2013-01-14 01:49:00,
2013-01-13 17:51:00,41.2,21.4,30.20,South,180,0.0,0.0,45,0.00,SCT,,0.00,WeatherDisplay:10.37,2013-01-14 01:51:00,
2013-01-13 17:54:00,41.1,21.3,30.20,South,180,0.0,0.0,45,0.00,SCT,,0.00,WeatherDisplay:10.37,2013-01-14 01:54:00,
2013-01-13 17:56:00,41.0,21.3,30.21,South,180,0.0,0.0,45,0.00,SCT,,0.00,WeatherDisplay:10.37,2013-01-14 01:56:00,
2013-01-13 17:59:00,40.9,21.7,30.21,SSE,152,1.1,0.0,46,0.00,SCT,,0.00,WeatherDisplay:10.37,2013-01-14 01:59:00,
2013-01-13 18:01:00,40.8,21.1,30.21,SSE,152,0.0,0.0,45,0.00,SCT,,0.00,WeatherDisplay:10.37,2013-01-14 02:01:00,
2013-01-13 18:02:00,40.8,21.6,30.21,SSE,152,0.0,0.0,46,0.00,SCT,,0.00,WeatherDisplay:10.37,2013-01-14 02:02:00,
2013-01-13 18:04:00,40.7,21.5,30.20,SSE,152,0.0,0.0,46,0.00,SCT,,0.00,WeatherDisplay:10.37,2013-01-14 02:04:00,
2013-01-13 18:06:00,40.7,21.5,30.20,SSE,152,0.0,0.0,46,0.00,SCT,,0.00,WeatherDisplay:10.37,2013-01-14 02:06:00,
2013-01-13 18:09:00,40.6,21.4,30.20,SSE,152,0.0,0.0,46,0.00,SCT,,0.00,WeatherDisplay:10.37,2013-01-14 02:09:00,
2013-01-13 18:11:00,40.6,21.4,30.20,East,101,1.1,1.1,46,0.00,SCT,,0.00,WeatherDisplay:10.37,2013-01-14 02:11:00,
2013-01-13 18:12:00,40.5,21.3,30.20,East,101,1.1,0.0,46,0.00,SCT,,0.00,WeatherDisplay:10.37,2013-01-14 02:12:00,
2013-01-13 18:14:00,40.4,21.2,30.20,East,101,0.0,0.0,46,0.00,SCT,,0.00,WeatherDisplay:10.37,2013-01-14 02:14:00,
2013-01-13 18:15:00,40.4,21.2,30.20,East,101,0.0,0.0,46,0.00,SCT,,0.00,WeatherDisplay:10.37,2013-01-14 02:15:00,
2013-01-13 18:16:00,40.4,21.7,30.20,East,101,0.0,0.0,47,0.00,SCT,,0.00,WeatherDisplay:10.37,2013-01-14 02:16:00,
2013-01-13 18:17:00,40.4,21.7,30.20,East,101,0.0,0.0,47,0.00,SCT,,0.00,WeatherDisplay:10.37,2013-01-14 02:17:00,
2013-01-13 18:19:00,40.3,21.6,30.20,ESE,108,0.0,0.0,47,0.00,SCT,,0.00,WeatherDisplay:10.37,2013-01-14 02:19:00,
2013-01-13 18:20:00,40.3,21.6,30.21,ESE,108,0.0,0.0,47,0.00,SCT,,0.00,WeatherDisplay:10.37,2013-01-14 02:20:00,
2013-01-13 18:22:00,40.3,21.6,30.21,ESE,108,1.1,1.1,47,0.00,SCT,,0.00,WeatherDisplay:10.37,2013-01-14 02:22:00,
2013-01-13 18:24:00,40.2,21.6,30.21,ESE,108,0.0,0.0,47,0.00,SCT,,0.00,WeatherDisplay:10.37,2013-01-14 02:24:00,
2013-01-13 18:25:00,40.1,21.5,30.21,ESE,108,0.0,0.0,47,0.00,SCT,,0.00,WeatherDisplay:10.37,2013-01-14 02:25:00,
2013-01-13 18:27:00,40.1,21.5,30.20,ESE,108,0.0,0.0,47,0.00,SCT,,0.00,WeatherDisplay:10.37,2013-01-14 02:27:00,
2013-01-13 18:29:00,40.0,21.9,30.20,ESE,108,0.0,0.0,48,0.00,SCT,,0.00,WeatherDisplay:10.37,2013-01-14 02:29:00,
2013-01-13 18:30:00,40.0,21.9,30.20,ESE,108,0.0,0.0,48,0.00,SCT,,0.00,WeatherDisplay:10.37,2013-01-14 02:30:00,
2013-01-13 18:32:00,39.9,22.3,30.20,ESE,108,0.0,0.0,49,0.00,SCT,,0.00,WeatherDisplay:10.37,2013-01-14 02:32:00,
2013-01-13 18:34:00,39.8,21.7,30.20,ESE,108,0.0,0.0,48,0.00,SCT,,0.00,WeatherDisplay:10.37,2013-01-14 02:34:00,
2013-01-13 18:35:00,39.8,22.2,30.20,ESE,108,0.0,0.0,49,0.00,SCT,,0.00,WeatherDisplay:10.37,2013-01-14 02:35:00,
2013-01-13 18:37:00,39.7,22.1,30.20,ESE,108,0.0,0.0,49,0.00,SCT,,0.00,WeatherDisplay:10.37,2013-01-14 02:37:00,
2013-01-13 18:40:00,39.6,22.0,30.20,ESE,108,0.0,0.0,49,0.00,SCT,,0.00,WeatherDisplay:10.37,2013-01-14 02:40:00,
2013-01-13 18:41:00,39.6,22.0,30.20,ESE,108,0.0,0.0,49,0.00,SCT,,0.00,WeatherDisplay:10.37,2013-01-14 02:41:00,
2013-01-13 18:42:00,39.5,21.9,30.20,ESE,108,0.0,0.0,49,0.00,SCT,,0.00,WeatherDisplay:10.37,2013-01-14 02:42:00,
2013-01-13 18:45:00,39.4,21.8,30.20,ESE,108,0.0,0.0,49,0.00,SCT,,0.00,WeatherDisplay:10.37,2013-01-14 02:45:00,
2013-01-13 18:46:00,39.4,22.3,30.20,ESE,108,0.0,0.0,50,0.00,SCT,,0.00,WeatherDisplay:10.37,2013-01-14 02:46:00,
2013-01-13 18:47:00,39.3,22.2,30.20,ESE,108,0.0,0.0,50,0.00,SCT,,0.00,WeatherDisplay:10.37,2013-01-14 02:47:00,
2013-01-13 18:50:00,39.1,22.0,30.21,ESE,108,0.0,0.0,50,0.00,SCT,,0.00,WeatherDisplay:10.37,2013-01-14 02:50:00,
2013-01-13 18:51:00,39.1,22.0,30.21,ESE,108,0.0,0.0,50,0.00,SCT,,0.00,WeatherDisplay:10.37,2013-01-14 02:51:00,
2013-01-13 18:52:00,39.0,21.9,30.21,ESE,108,0.0,0.0,50,0.00,SCT,,0.00,WeatherDisplay:10.37,2013-01-14 02:52:00,
2013-01-13 18:55:00,38.9,21.8,30.20,ESE,108,0.0,0.0,50,0.00,SCT,,0.00,WeatherDisplay:10.37,2013-01-14 02:55:00,
2013-01-13 18:56:00,38.9,21.8,30.21,ESE,108,0.0,0.0,50,0.00,SCT,,0.00,WeatherDisplay:10.37,2013-01-14 02:56:00,
2013-01-13 18:57:00,38.9,21.8,30.21,ESE,108,0.0,0.0,50,0.00,SCT,,0.00,WeatherDisplay:10.37,2013-01-14 02:57:00,
2013-01-13 19:01:00,38.8,22.2,30.21,ESE,108,0.0,0.0,51,0.00,SCT,,0.00,WeatherDisplay:10.37,2013-01-14 03:01:00,
2013-01-13 19:03:00,38.8,22.2,30.21,ESE,108,0.0,0.0,51,0.00,SCT,,0.00,WeatherDisplay:10.37,2013-01-14 03:03:00,
2013-01-13 19:06:00,38.7,22.1,30.20,ESE,108,0.0,0.0,51,0.00,SCT,,0.00,WeatherDisplay:10.37,2013-01-14 03:06:00,
2013-01-13 19:08:00,38.6,22.0,30.21,ESE,108,0.0,0.0,51,0.00,SCT,,0.00,WeatherDisplay:10.37,2013-01-14 03:08:00,
2013-01-13 19:11:00,38.5,21.5,30.21,ESE,108,0.0,0.0,50,0.00,SCT,,0.00,WeatherDisplay:10.37,2013-01-14 03:11:00,
2013-01-13 19:12:00,38.5,21.5,30.21,ESE,108,0.0,0.0,50,0.00,SCT,,0.00,WeatherDisplay:10.37,2013-01-14 03:12:00,
2013-01-13 19:13:00,38.5,21.5,30.21,ESE,108,0.0,0.0,50,0.00,SCT,,0.00,WeatherDisplay:10.37,2013-01-14 03:13:00,
2013-01-13 19:16:00,38.4,21.8,30.20,ESE,108,0.0,0.0,51,0.00,SCT,,0.00,WeatherDisplay:10.37,2013-01-14 03:16:00,
2013-01-13 19:18:00,38.4,21.8,30.21,ESE,108,0.0,0.0,51,0.00,SCT,,0.00,WeatherDisplay:10.37,2013-01-14 03:18:00,
2013-01-13 19:19:00,38.3,21.7,30.21,ESE,108,0.0,0.0,51,0.00,SCT,,0.00,WeatherDisplay:10.37,2013-01-14 03:19:00,
2013-01-13 19:21:00,38.3,21.7,30.21,ESE,108,0.0,0.0,51,0.00,SCT,,0.00,WeatherDisplay:10.37,2013-01-14 03:21:00,
2013-01-13 19:23:00,38.3,21.3,30.21,ESE,108,0.0,0.0,50,0.00,SCT,,0.00,WeatherDisplay:10.37,2013-01-14 03:23:00,
2013-01-13 19:24:00,38.3,21.7,30.21,ESE,108,0.0,0.0,51,0.00,SCT,,0.00,WeatherDisplay:10.37,2013-01-14 03:24:00,
2013-01-13 19:26:00,38.3,21.7,30.21,ESE,108,0.0,0.0,51,0.00,SCT,,0.00,WeatherDisplay:10.37,2013-01-14 03:26:00,
2013-01-13 19:28:00,38.2,21.2,30.21,ESE,108,0.0,0.0,50,0.00,SCT,,0.00,WeatherDisplay:10.37,2013-01-14 03:28:00,
2013-01-13 19:29:00,38.2,21.2,30.21,ESE,108,0.0,0.0,50,0.00,SCT,,0.00,WeatherDisplay:10.37,2013-01-14 03:29:00,
2013-01-13 19:31:00,38.1,21.1,30.21,ESE,108,0.0,0.0,50,0.00,SCT,,0.00,WeatherDisplay:10.37,2013-01-14 03:31:00,
2013-01-13 19:33:00,38.1,21.1,30.21,ESE,108,0.0,0.0,50,0.00,SCT,,0.00,WeatherDisplay:10.37,2013-01-14 03:33:00,
2013-01-13 19:34:00,38.1,21.1,30.21,ESE,108,0.0,0.0,50,0.00,SCT,,0.00,WeatherDisplay:10.37,2013-01-14 03:34:00,
2013-01-13 19:35:00,38.1,21.5,30.21,ESE,108,0.0,0.0,51,0.00,SCT,,0.00,WeatherDisplay:10.37,2013-01-14 03:35:00,
2013-01-13 19:36:00,38.0,21.5,30.21,ESE,108,0.0,0.0,51,0.00,SCT,,0.00,WeatherDisplay:10.37,2013-01-14 03:36:00,
2013-01-13 19:39:00,38.0,21.5,30.21,ESE,108,0.0,0.0,51,0.00,SCT,,0.00,WeatherDisplay:10.37,2013-01-14 03:39:00,
2013-01-13 19:40:00,38.0,21.5,30.21,ESE,108,0.0,0.0,51,0.00,SCT,,0.00,WeatherDisplay:10.37,2013-01-14 03:40:00,
2013-01-13 19:41:00,37.9,21.4,30.21,ESE,108,0.0,0.0,51,0.00,SCT,,0.00,WeatherDisplay:10.37,2013-01-14 03:41:00,
2013-01-13 19:44:00,37.8,21.3,30.21,ESE,108,0.0,0.0,51,0.00,SCT,,0.00,WeatherDisplay:10.37,2013-01-14 03:44:00,
2013-01-13 19:45:00,37.8,21.3,30.21,ESE,108,0.0,0.0,51,0.00,SCT,,0.00,WeatherDisplay:10.37,2013-01-14 03:45:00,
2013-01-13 19:46:00,37.7,21.6,30.22,ESE,108,0.0,0.0,52,0.00,SCT,,0.00,WeatherDisplay:10.37,2013-01-14 03:46:00,
2013-01-13 19:49:00,37.7,21.6,30.21,ESE,108,0.0,0.0,52,0.00,SCT,,0.00,WeatherDisplay:10.37,2013-01-14 03:49:00,
2013-01-13 19:50:00,37.6,21.5,30.22,ESE,108,0.0,0.0,52,0.00,SCT,,0.00,WeatherDisplay:10.37,2013-01-14 03:50:00,
2013-01-13 19:51:00,37.6,21.5,30.21,ESE,108,0.0,0.0,52,0.00,SCT,,0.00,WeatherDisplay:10.37,2013-01-14 03:51:00,
2013-01-13 19:54:00,37.5,21.9,30.21,ESE,108,0.0,0.0,53,0.00,SCT,,0.00,WeatherDisplay:10.37,2013-01-14 03:54:00,
2013-01-13 19:55:00,37.5,21.9,30.21,ESE,108,0.0,0.0,53,0.00,SCT,,0.00,WeatherDisplay:10.37,2013-01-14 03:55:00,
2013-01-13 19:57:00,37.5,21.9,30.21,ESE,108,0.0,0.0,53,0.00,SCT,,0.00,WeatherDisplay:10.37,2013-01-14 03:57:00,
2013-01-13 19:59:00,37.4,21.4,30.22,ESE,108,0.0,0.0,52,0.00,SCT,,0.00,WeatherDisplay:10.37,2013-01-14 03:59:00,
2013-01-13 20:00:00,37.4,21.4,30.22,ESE,108,0.0,0.0,52,0.00,SCT,,0.00,WeatherDisplay:10.37,2013-01-14 04:00:00,
2013-01-13 20:02:00,37.3,21.7,30.22,ESE,108,0.0,0.0,53,0.00,SCT,,0.00,WeatherDisplay:10.37,2013-01-14 04:02:00,
2013-01-13 20:05:00,37.2,21.6,30.21,ESE,108,0.0,0.0,53,0.00,SCT,,0.00,WeatherDisplay:10.37,2013-01-14 04:05:00,
2013-01-13 20:07:00,37.2,22.1,30.21,ESE,108,0.0,0.0,54,0.00,SCT,,0.00,WeatherDisplay:10.37,2013-01-14 04:07:00,
2013-01-13 20:10:00,37.1,21.5,30.21,ESE,108,0.0,0.0,53,0.00,SCT,,0.00,WeatherDisplay:10.37,2013-01-14 04:10:00,
2013-01-13 20:12:00,37.1,21.5,30.21,ESE,108,0.0,0.0,53,0.00,SCT,,0.00,WeatherDisplay:10.37,2013-01-14 04:12:00,
2013-01-13 20:15:00,37.0,21.5,30.22,ESE,108,0.0,0.0,53,0.00,SCT,,0.00,WeatherDisplay:10.37,2013-01-14 04:15:00,
2013-01-13 20:17:00,37.0,21.4,30.22,ESE,108,0.0,0.0,53,0.00,SCT,,0.00,WeatherDisplay:10.37,2013-01-14 04:17:00,
2013-01-13 20:20:00,36.9,21.8,30.22,SSW,195,1.1,0.0,54,0.00,SCT,,0.00,WeatherDisplay:10.37,2013-01-14 04:20:00,
2013-01-13 20:22:00,36.8,21.7,30.22,SSW,195,0.0,0.0,54,0.00,SCT,,0.00,WeatherDisplay:10.37,2013-01-14 04:22:00,
2013-01-13 20:25:00,36.8,21.7,30.22,SSW,195,0.0,0.0,54,0.00,SCT,,0.00,WeatherDisplay:10.37,2013-01-14 04:25:00,
2013-01-13 20:26:00,36.8,21.7,30.22,SSW,195,0.0,0.0,54,0.00,SCT,,0.00,WeatherDisplay:10.37,2013-01-14 04:26:00,
2013-01-13 20:27:00,36.7,21.6,30.22,SSW,195,0.0,0.0,54,0.00,SCT,,0.00,WeatherDisplay:10.37,2013-01-14 04:27:00,
2013-01-13 20:30:00,36.7,21.6,30.22,SSW,195,0.0,0.0,54,0.00,SCT,,0.00,WeatherDisplay:10.37,2013-01-14 04:30:00,
2013-01-13 20:31:00,36.7,21.6,30.22,SSW,195,0.0,0.0,54,0.00,SCT,,0.00,WeatherDisplay:10.37,2013-01-14 04:31:00,
2013-01-13 20:32:00,36.6,21.5,30.22,SSW,195,0.0,0.0,54,0.00,SCT,,0.00,WeatherDisplay:10.37,2013-01-14 04:32:00,
2013-01-13 20:35:00,36.6,21.5,30.22,SSW,195,0.0,0.0,54,0.00,SCT,,0.00,WeatherDisplay:10.37,2013-01-14 04:35:00,
2013-01-13 20:36:00,36.5,21.4,30.22,SSW,195,0.0,0.0,54,0.00,SCT,,0.00,WeatherDisplay:10.37,2013-01-14 04:36:00,
2013-01-13 20:37:00,36.5,21.4,30.22,SSW,195,0.0,0.0,54,0.00,SCT,,0.00,WeatherDisplay:10.37,2013-01-14 04:37:00,
2013-01-13 20:41:00,36.4,21.3,30.22,SSW,195,0.0,0.0,54,0.00,SCT,,0.00,WeatherDisplay:10.37,2013-01-14 04:41:00,
2013-01-13 20:42:00,36.4,21.3,30.22,SSW,195,0.0,0.0,54,0.00,SCT,,0.00,WeatherDisplay:10.37,2013-01-14 04:42:00,
2013-01-13 20:46:00,36.3,21.2,30.22,SSW,195,0.0,0.0,54,0.00,SCT,,0.00,WeatherDisplay:10.37,2013-01-14 04:46:00,
2013-01-13 20:47:00,36.3,21.2,30.22,SSW,195,0.0,0.0,54,0.00,SCT,,0.00,WeatherDisplay:10.37,2013-01-14 04:47:00,
2013-01-13 20:51:00,36.2,21.1,30.22,SSW,195,0.0,0.0,54,0.00,SCT,,0.00,WeatherDisplay:10.37,2013-01-14 04:51:00,
2013-01-13 20:52:00,36.1,21.0,30.22,SSW,195,0.0,0.0,54,0.00,SCT,,0.00,WeatherDisplay:10.37,2013-01-14 04:52:00,
2013-01-13 20:56:00,36.1,20.6,30.22,SSW,196,0.0,0.0,53,0.00,SCT,,0.00,WeatherDisplay:10.37,2013-01-14 04:56:00,
2013-01-13 20:57:00,36.1,20.6,30.22,SSW,196,0.0,0.0,53,0.00,SCT,,0.00,WeatherDisplay:10.37,2013-01-14 04:57:00,
2013-01-13 20:58:00,36.1,20.6,30.22,SSW,195,0.0,0.0,53,0.00,SCT,,0.00,WeatherDisplay:10.37,2013-01-14 04:58:00,
2013-01-13 21:00:00,36.1,20.6,30.22,SSW,195,0.0,0.0,53,0.00,SCT,,0.00,WeatherDisplay:10.37,2013-01-14 05:00:00,
2013-01-13 21:03:00,36.1,20.6,30.22,SSW,201,0.0,0.0,53,0.00,SCT,,0.00,WeatherDisplay:10.37,2013-01-14 05:03:00,
2013-01-13 21:05:00,36.1,20.6,30.22,SSW,201,0.0,0.0,53,0.00,SCT,,0.00,WeatherDisplay:10.37,2013-01-14 05:05:00,
2013-01-13 21:08:00,36.1,20.2,30.22,SW,223,0.0,0.0,52,0.00,SCT,,0.00,WeatherDisplay:10.37,2013-01-14 05:08:00,
2013-01-13 21:09:00,36.1,20.2,30.22,SW,224,0.0,0.0,52,0.00,SCT,,0.00,WeatherDisplay:10.37,2013-01-14 05:09:00,
2013-01-13 21:10:00,36.1,20.2,30.22,SW,224,0.0,0.0,52,0.00,SCT,,0.00,WeatherDisplay:10.37,2013-01-14 05:10:00,
2013-01-13 21:13:00,36.2,19.8,30.22,SW,224,0.0,0.0,51,0.00,SCT,,0.00,WeatherDisplay:10.37,2013-01-14 05:13:00,
2013-01-13 21:14:00,36.1,19.7,30.22,SW,224,0.0,0.0,51,0.00,SCT,,0.00,WeatherDisplay:10.37,2013-01-14 05:14:00,
2013-01-13 21:15:00,36.1,19.7,30.22,SW,224,0.0,0.0,51,0.00,SCT,,0.00,WeatherDisplay:10.37,2013-01-14 05:15:00,
2013-01-13 21:19:00,36.3,18.9,30.22,SW,229,0.0,0.0,49,0.00,SCT,,0.00,WeatherDisplay:10.37,2013-01-14 05:19:00,
2013-01-13 21:20:00,36.3,18.5,30.22,SW,229,1.0,0.0,48,0.00,SCT,,0.00,WeatherDisplay:10.37,2013-01-14 05:20:00,
2013-01-13 21:24:00,36.5,18.2,30.21,West,265,2.3,2.3,47,0.00,SCT,,0.00,WeatherDisplay:10.37,2013-01-14 05:24:00,
2013-01-13 21:25:00,36.6,18.2,30.21,West,265,1.1,0.0,47,0.00,SCT,,0.00,WeatherDisplay:10.37,2013-01-14 05:25:00,
2013-01-13 21:26:00,36.6,18.2,30.21,West,261,1.1,1.1,47,0.00,SCT,,0.00,WeatherDisplay:10.37,2013-01-14 05:26:00,
2013-01-13 21:29:00,36.9,17.5,30.21,WSW,250,1.1,0.0,45,0.00,SCT,,0.00,WeatherDisplay:10.37,2013-01-14 05:29:00,
2013-01-13 21:30:00,36.9,17.5,30.21,WSW,253,4.0,4.0,45,0.00,SCT,,0.00,WeatherDisplay:10.37,2013-01-14 05:30:00,
2013-01-13 21:31:00,36.9,17.0,30.21,WSW,256,0.0,1.6,44,0.00,SCT,,0.00,WeatherDisplay:10.37,2013-01-14 05:31:00,
2013-01-13 21:34:00,37.3,16.3,30.21,WSW,241,2.3,2.3,42,0.00,SCT,,0.00,WeatherDisplay:10.37,2013-01-14 05:34:00,
2013-01-13 21:35:00,37.3,16.3,30.21,WSW,248,4.6,4.6,42,0.00,SCT,,0.00,WeatherDisplay:10.37,2013-01-14 05:35:00,
2013-01-13 21:36:00,37.3,15.7,30.22,West,271,4.6,4.6,41,0.00,SCT,,0.00,WeatherDisplay:10.37,2013-01-14 05:36:00,
2013-01-13 21:39:00,37.7,14.3,30.21,WSW,253,8.1,8.1,38,0.00,SCT,,0.00,WeatherDisplay:10.37,2013-01-14 05:39:00,
2013-01-13 21:40:00,37.8,15.0,30.22,WSW,258,3.5,3.5,39,0.00,SCT,,0.00,WeatherDisplay:10.37,2013-01-14 05:40:00,
2013-01-13 21:41:00,37.8,15.6,30.22,WSW,258,1.1,1.1,40,0.00,SCT,,0.00,WeatherDisplay:10.37,2013-01-14 05:41:00,
2013-01-13 21:45:00,37.9,13.9,30.21,WSW,258,3.5,3.5,37,0.00,SCT,,0.00,WeatherDisplay:10.37,2013-01-14 05:45:00,
2013-01-13 21:46:00,38.1,13.5,30.21,West,264,3.5,3.5,36,0.00,SCT,,0.00,WeatherDisplay:10.37,2013-01-14 05:46:00,
2013-01-13 21:50:00,38.4,12.4,30.21,WNW,293,3.5,3.5,34,0.00,SCT,,0.00,WeatherDisplay:10.37,2013-01-14 05:50:00,
2013-01-13 21:51:00,38.5,12.5,30.22,WNW,294,3.5,3.5,34,0.00,SCT,,0.00,WeatherDisplay:10.37,2013-01-14 05:51:00,
2013-01-13 21:55:00,38.6,12.6,30.22,NW,307,3.5,3.5,34,0.00,SCT,,0.00,WeatherDisplay:10.37,2013-01-14 05:55:00,
2013-01-13 21:56:00,38.6,12.6,30.22,West,265,3.5,3.5,34,0.00,SCT,,0.00,WeatherDisplay:10.37,2013-01-14 05:56:00,
2013-01-13 22:00:00,38.8,12.8,30.22,West,271,4.6,4.6,34,0.00,SCT,,0.00,WeatherDisplay:10.37,2013-01-14 06:00:00,
2013-01-13 22:01:00,38.8,12.8,30.22,West,281,4.6,4.6,34,0.00,SCT,,0.00,WeatherDisplay:10.37,2013-01-14 06:01:00,
2013-01-13 22:02:00,38.8,12.1,30.22,West,262,3.5,3.5,33,0.00,SCT,,0.00,WeatherDisplay:10.37,2013-01-14 06:02:00,
2013-01-13 22:05:00,39.0,12.3,30.21,West,270,4.6,4.6,33,0.00,SCT,,0.00,WeatherDisplay:10.37,2013-01-14 06:05:00,
2013-01-13 22:06:00,39.1,12.4,30.21,WSW,255,4.6,4.6,33,0.00,SCT,,0.00,WeatherDisplay:10.37,2013-01-14 06:06:00,
2013-01-13 22:07:00,39.0,11.6,30.21,WSW,253,3.5,3.5,32,0.00,SCT,,0.00,WeatherDisplay:10.37,2013-01-14 06:07:00,
2013-01-13 22:10:00,39.2,11.8,30.21,West,277,4.6,4.6,32,0.00,SCT,,0.00,WeatherDisplay:10.37,2013-01-14 06:10:00,
2013-01-13 22:11:00,39.2,11.0,30.21,West,270,3.5,3.5,31,0.00,SCT,,0.00,WeatherDisplay:10.37,2013-01-14 06:11:00,
2013-01-13 22:12:00,39.3,11.1,30.21,West,266,3.5,3.5,31,0.00,SCT,,0.00,WeatherDisplay:10.37,2013-01-14 06:12:00,
2013-01-13 22:15:00,39.3,9.6,30.21,West,272,3.5,3.5,29,0.00,SCT,,0.00,WeatherDisplay:10.37,2013-01-14 06:15:00,
2013-01-13 22:16:00,39.3,9.6,30.22,WNW,284,6.9,6.9,29,0.00,SCT,,0.00,WeatherDisplay:10.37,2013-01-14 06:16:00,
2013-01-13 22:17:00,39.4,9.7,30.21,West,274,6.9,6.9,29,0.00,SCT,,0.00,WeatherDisplay:10.37,2013-01-14 06:17:00,
2013-01-13 22:21:00,39.4,10.5,30.21,West,279,3.5,3.5,30,0.00,SCT,,0.00,WeatherDisplay:10.37,2013-01-14 06:21:00,
2013-01-13 22:22:00,39.4,11.9,30.21,West,271,3.5,3.5,32,0.00,SCT,,0.00,WeatherDisplay:10.37,2013-01-14 06:22:00,
2013-01-13 22:23:00,39.4,11.2,30.21,West,271,5.0,5.0,31,0.00,SCT,,0.00,WeatherDisplay:10.37,2013-01-14 06:23:00,
2013-01-13 22:26:00,39.4,10.5,30.21,West,262,3.5,3.5,30,0.00,SCT,,0.00,WeatherDisplay:10.37,2013-01-14 06:26:00,
2013-01-13 22:27:00,39.4,10.5,30.21,WNW,290,3.5,3.5,30,0.00,SCT,,0.00,WeatherDisplay:10.37,2013-01-14 06:27:00,
2013-01-13 22:28:00,39.4,11.2,30.21,West,273,2.3,2.3,31,0.00,SCT,,0.00,WeatherDisplay:10.37,2013-01-14 06:28:00,
2013-01-13 22:31:00,39.3,9.6,30.21,WSW,258,4.6,4.6,29,0.00,SCT,,0.00,WeatherDisplay:10.37,2013-01-14 06:31:00,
2013-01-13 22:32:00,39.3,10.4,30.21,WSW,240,4.6,4.6,30,0.00,SCT,,0.00,WeatherDisplay:10.37,2013-01-14 06:32:00,
2013-01-13 22:33:00,39.3,10.4,30.21,West,261,3.5,3.5,30,0.00,SCT,,0.00,WeatherDisplay:10.37,2013-01-14 06:33:00,
2013-01-13 22:36:00,39.3,10.4,30.21,West,276,2.3,2.3,30,0.00,SCT,,0.00,WeatherDisplay:10.37,2013-01-14 06:36:00,
2013-01-13 22:37:00,39.3,9.6,30.21,WSW,253,10.4,10.4,29,0.00,SCT,,0.00,WeatherDisplay:10.37,2013-01-14 06:37:00,
2013-01-13 22:38:00,39.3,9.6,30.21,NW,311,10.4,10.4,29,0.00,SCT,,0.00,WeatherDisplay:10.37,2013-01-14 06:38:00,
2013-01-13 22:41:00,39.4,10.5,30.21,WSW,251,3.0,3.0,30,0.00,SCT,,0.00,WeatherDisplay:10.37,2013-01-14 06:41:00,
2013-01-13 22:42:00,39.4,10.5,30.21,West,275,3.5,3.5,30,0.00,SCT,,0.00,WeatherDisplay:10.37,2013-01-14 06:42:00,
2013-01-13 22:43:00,39.4,9.7,30.22,West,281,4.0,4.0,29,0.00,SCT,,0.00,WeatherDisplay:10.37,2013-01-14 06:43:00,
2013-01-13 22:46:00,39.4,9.7,30.22,WNW,289,5.8,5.8,29,0.00,SCT,,0.00,WeatherDisplay:10.37,2013-01-14 06:46:00,
2013-01-13 22:47:00,39.4,8.9,30.22,WSW,254,3.5,3.5,28,0.00,SCT,,0.00,WeatherDisplay:10.37,2013-01-14 06:47:00,
2013-01-13 22:48:00,39.4,9.7,30.22,West,268,3.5,3.5,29,0.00,SCT,,0.00,WeatherDisplay:10.37,2013-01-14 06:48:00,
2013-01-13 22:52:00,39.3,10.4,30.22,WNW,284,3.5,3.5,30,0.00,SCT,,0.00,WeatherDisplay:10.37,2013-01-14 06:52:00,
2013-01-13 22:53:00,39.2,10.3,30.22,West,259,3.5,3.5,30,0.00,SCT,,0.00,WeatherDisplay:10.37,2013-01-14 06:53:00,
2013-01-13 22:57:00,39.3,8.9,30.22,WNW,299,3.5,3.5,28,0.00,SCT,,0.00,WeatherDisplay:10.37,2013-01-14 06:57:00,
2013-01-13 22:58:00,39.3,8.9,30.22,WNW,288,3.5,3.5,28,0.00,SCT,,0.00,WeatherDisplay:10.37,2013-01-14 06:58:00,
2013-01-13 22:59:00,39.3,8.0,30.22,WSW,243,3.5,3.5,27,0.00,SCT,,0.00,WeatherDisplay:10.37,2013-01-14 06:59:00,
2013-01-13 23:02:00,39.3,8.9,30.22,West,273,2.3,2.3,28,0.00,SCT,,0.00,WeatherDisplay:10.37,2013-01-14 07:02:00,
2013-01-13 23:03:00,39.3,8.9,30.22,West,274,2.3,2.3,28,0.00,SCT,,0.00,WeatherDisplay:10.37,2013-01-14 07:03:00,
2013-01-13 23:04:00,39.3,8.9,30.22,West,265,2.3,2.3,28,0.00,SCT,,0.00,WeatherDisplay:10.37,2013-01-14 07:04:00,
2013-01-13 23:07:00,39.2,8.8,30.22,WNW,300,9.0,9.0,28,0.00,SCT,,0.00,WeatherDisplay:10.37,2013-01-14 07:07:00,
2013-01-13 23:08:00,39.3,8.0,30.23,West,270,1.1,3.7,27,0.00,SCT,,0.00,WeatherDisplay:10.37,2013-01-14 07:08:00,
2013-01-13 23:09:00,39.3,9.6,30.23,West,269,3.5,3.5,29,0.00,SCT,,0.00,WeatherDisplay:10.37,2013-01-14 07:09:00,
2013-01-13 23:12:00,39.4,8.1,30.23,West,274,3.5,3.5,27,0.00,SCT,,0.00,WeatherDisplay:10.37,2013-01-14 07:12:00,
2013-01-13 23:13:00,39.5,8.2,30.23,NW,304,3.5,3.5,27,0.00,SCT,,0.00,WeatherDisplay:10.37,2013-01-14 07:13:00,
2013-01-13 23:15:00,39.5,8.2,30.22,West,267,3.5,3.5,27,0.00,SCT,,0.00,WeatherDisplay:10.37,2013-01-14 07:15:00,
2013-01-13 23:18:00,39.4,8.1,30.23,West,267,2.3,2.3,27,0.00,SCT,,0.00,WeatherDisplay:10.37,2013-01-14 07:18:00,
2013-01-13 23:20:00,39.4,8.1,30.23,WNW,298,3.5,3.5,27,0.00,SCT,,0.00,WeatherDisplay:10.37,2013-01-14 07:20:00,
2013-01-13 23:23:00,39.4,8.9,30.23,West,265,5.8,5.8,28,0.00,SCT,,0.00,WeatherDisplay:10.37,2013-01-14 07:23:00,
2013-01-13 23:24:00,39.4,8.9,30.23,NW,312,2.3,2.3,28,0.00,SCT,,0.00,WeatherDisplay:10.37,2013-01-14 07:24:00,
2013-01-13 23:25:00,39.4,8.9,30.23,West,273,0.0,10.0,28,0.00,SCT,,0.00,WeatherDisplay:10.37,2013-01-14 07:25:00,
2013-01-13 23:28:00,39.3,8.9,30.23,West,265,3.5,3.5,28,0.00,SCT,,0.00,WeatherDisplay:10.37,2013-01-14 07:28:00,
2013-01-13 23:29:00,39.3,8.9,30.23,West,269,3.5,3.5,28,0.00,SCT,,0.00,WeatherDisplay:10.37,2013-01-14 07:29:00,
2013-01-13 23:30:00,39.3,9.6,30.23,WNW,302,8.1,8.1,29,0.00,SCT,,0.00,WeatherDisplay:10.37,2013-01-14 07:30:00,
2013-01-13 23:33:00,39.1,8.7,30.23,NW,304,1.1,1.1,28,0.00,SCT,,0.00,WeatherDisplay:10.37,2013-01-14 07:33:00,
2013-01-13 23:34:00,39.1,7.9,30.23,WNW,289,4.6,4.6,27,0.00,SCT,,0.00,WeatherDisplay:10.37,2013-01-14 07:34:00,
2013-01-13 23:35:00,39.1,7.9,30.23,WNW,283,2.3,2.3,27,0.00,SCT,,0.00,WeatherDisplay:10.37,2013-01-14 07:35:00,
2013-01-13 23:38:00,39.2,8.0,30.23,NNW,329,0.0,0.0,27,0.00,SCT,,0.00,WeatherDisplay:10.37,2013-01-14 07:38:00,
2013-01-13 23:39:00,39.2,8.8,30.23,NNW,332,0.0,0.0,28,0.00,SCT,,0.00,WeatherDisplay:10.37,2013-01-14 07:39:00,
2013-01-13 23:40:00,39.1,8.7,30.23,NW,320,0.0,0.0,28,0.00,SCT,,0.00,WeatherDisplay:10.37,2013-01-14 07:40:00,
2013-01-13 23:43:00,39.0,8.6,30.24,NNE,15,2.3,2.3,28,0.00,SCT,,0.00,WeatherDisplay:10.37,2013-01-14 07:43:00,
2013-01-13 23:44:00,39.0,8.6,30.24,WNW,297,3.5,3.5,28,0.00,SCT,,0.00,WeatherDisplay:10.37,2013-01-14 07:44:00,
2013-01-13 23:45:00,39.0,8.6,30.24,WNW,297,3.5,3.5,28,0.00,SCT,,0.00,WeatherDisplay:10.37,2013-01-14 07:45:00,
2013-01-13 23:48:00,39.0,9.4,30.24,ESE,119,3.5,3.5,29,0.00,SCT,,0.00,WeatherDisplay:10.37,2013-01-14 07:48:00,
2013-01-13 23:49:00,39.0,7.8,30.24,NW,311,6.0,6.0,27,0.00,SCT,,0.00,WeatherDisplay:10.37,2013-01-14 07:49:00,
2013-01-13 23:50:00,39.0,7.8,30.24,WNW,296,5.8,5.8,27,0.00,SCT,,0.00,WeatherDisplay:10.37,2013-01-14 07:50:00,
2013-01-13 23:53:00,39.0,8.6,30.24,NW,311,0.0,0.1,28,0.00,SCT,,0.00,WeatherDisplay:10.37,2013-01-14 07:53:00,
2013-01-13 23:55:00,39.0,7.8,30.24,NW,307,1.1,0.0,27,0.00,SCT,,0.00,WeatherDisplay:10.37,2013-01-14 07:55:00,
2013-01-13 23:58:00,38.9,7.7,30.24,NNE,13,3.5,3.5,27,0.00,SCT,,0.00,WeatherDisplay:10.37,2013-01-14 07:58:00,